GFSFLT1_sfc_temp_000.txt.gz
Temp
75 75 75 74 73 73 73 73 73 74 73 74 74 73 72 68 59 60 63 64 70 75 74 73 73 73 73 73 72 72 72 72 73
75 75 74 74 73 73 73 73 73 73 73 74 74 73 71 60 58 59 60 61 72 75 74 74 74 73 73 73 72 72 72 72 72
76 75 74 74 74 73 73 73 73 73 73 73 73 72 70 64 58 59 59 64 72 75 75 74 74 73 73 73 72 72 72 72 72
75 74 74 74 74 74 72 73 73 73 72 72 72 71 70 59 57 61 59 66 72 75 75 74 74 73 73 73 73 72 72 72 72
73 72 73 73 73 74 73 73 73 73 72 72 71 70 69 60 58 57 58 68 72 74 75 75 74 74 73 73 73 73 72 72 72
65 67 69 71 72 73 74 73 72 71 70 70 70 69 60 59 57 56 63 69 72 73 74 75 75 74 74 73 73 73 73 72 72
64 64 67 70 71 71 72 72 72 69 59 58 63 58 58 58 57 56 65 69 72 73 74 74 75 74 74 74 73 73 73 73 72
59 59 59 60 63 61 63 62 60 59 57 56 55 55 55 55 57 59 65 68 71 73 74 74 75 75 74 74 74 73 73 73 72
58 57 58 58 59 59 59 59 58 57 57 55 54 54 54 55 56 57 63 66 69 72 73 74 75 75 75 74 74 74 73 73 73
58 58 57 57 58 58 58 58 59 58 57 57 55 55 54 54 56 57 61 64 67 70 72 74 74 75 76 75 74 74 73 73 73
58 58 58 57 58 59 58 58 58 58 57 57 56 56 56 56 56 57 58 63 65 68 71 72 74 75 76 76 75 74 74 73 73
60 58 58 59 58 58 58 58 57 57 57 56 58 58 56 57 57 57 59 59 63 65 69 71 73 74 75 76 76 75 74 73 73
59 59 61 61 57 57 57 58 56 56 57 58 58 58 59 59 58 59 59 59 60 63 66 68 71 73 74 75 76 76 75 74 73
59 61 62 60 57 56 58 59 56 59 60 57 58 58 57 59 61 60 59 60 61 61 62 64 66 68 71 73 75 75 75 74 74
59 60 60 60 57 58 56 56 60 60 59 61 62 63 62 59 58 60 61 61 61 60 61 62 62 64 67 70 72 74 74 74 74
59 59 59 59 58 60 61 59 58 58 58 56 58 59 60 60 60 61 60 61 61 60 60 61 61 62 65 66 68 70 72 72 73
61 59 58 58 58 58 58 58 59 60 61 56 57 54 57 57 60 60 60 60 61 61 60 61 60 60 61 61 64 66 69 71 72
58 57 57 57 57 57 57 57 58 58 61 61 57 54 54 58 61 57 58 59 59 60 60 60 60 60 60 61 61 63 64 68 71
56 56 55 54 54 54 55 58 56 57 56 59 62 60 58 54 54 61 58 57 59 60 60 60 60 61 60 60 61 61 62 65 68
55 55 54 53 54 52 51 52 53 52 53 53 55 55 56 56 54 51 56 61 63 62 61 61 61 62 62 61 60 61 63 66 68

GFSFLT1_sfc_temp_003.txt.gz
Temp
77 76 75 74 73 73 73 73 73 73 74 74 75 74 73 69 73 73 73 75 73 75 76 75 74 74 74 74 73 73 73 73 74
77 75 74 74 74 73 73 73 73 73 73 73 74 74 73 73 72 72 73 73 72 74 76 75 74 74 74 74 74 73 73 73 73
76 75 74 74 74 74 74 73 73 73 73 73 73 73 71 71 72 72 72 71 71 74 76 75 74 74 74 74 74 73 73 73 73
75 75 74 74 74 74 74 73 73 73 73 73 72 71 70 74 73 71 72 69 71 74 74 76 75 75 74 74 74 73 73 73 73
73 72 72 73 73 73 74 73 73 73 73 72 72 70 69 74 72 72 72 69 72 73 74 75 76 75 74 74 74 74 73 73 73
72 69 69 71 72 72 73 73 73 72 70 70 70 68 74 73 72 72 69 68 71 73 73 74 75 76 75 74 74 73 73 73 73
71 68 67 69 70 70 71 72 71 71 74 73 68 72 72 71 71 71 67 69 71 72 73 73 74 74 75 75 74 74 74 73 73
71 70 71 71 67 72 71 72 73 72 72 71 71 70 70 70 70 70 67 68 71 72 72 73 73 74 75 75 75 74 74 74 73
69 70 70 69 71 70 70 71 71 71 71 71 70 70 69 70 70 69 65 67 69 71 72 72 73 74 74 75 75 74 74 74 73
70 70 70 70 70 69 70 70 70 70 71 70 70 70 70 70 70 69 64 64 67 69 72 73 73 74 74 75 75 74 74 74 73
69 69 69 69 70 71 70 70 70 70 70 69 70 69 70 70 70 69 69 64 65 67 70 72 73 74 75 75 75 75 74 74 73
69 69 69 70 70 69 69 69 68 67 69 68 69 69 70 69 69 69 69 69 64 64 68 71 72 73 74 75 75 75 75 74 73
69 68 69 71 70 69 68 68 67 67 66 65 67 69 69 69 70 70 70 69 69 67 65 68 70 72 73 74 75 75 74 74 74
68 69 69 70 68 68 67 67 66 65 66 67 68 68 67 68 69 69 69 69 68 70 67 64 65 68 70 73 75 75 74 74 74
67 67 67 68 67 67 67 65 65 63 63 63 63 66 68 69 68 68 69 70 68 68 68 69 68 63 66 69 72 74 74 74 74
66 66 66 66 66 65 66 65 65 65 67 59 60 64 67 69 70 70 69 68 69 69 69 68 69 69 65 66 67 69 71 72 73
64 62 62 63 63 63 63 63 62 64 66 60 59 57 64 71 67 69 67 70 69 67 69 69 69 68 69 67 65 66 69 71 72
61 61 61 60 61 59 60 60 59 57 61 62 58 54 54 55 66 67 69 68 67 68 68 65 67 67 69 66 65 62 64 68 71
59 59 59 59 59 58 58 60 58 57 55 58 63 60 58 52 52 64 65 68 67 69 70 69 69 68 67 66 63 63 63 65 68
57 57 57 57 57 57 56 56 56 56 54 54 55 55 56 58 53 49 56 62 64 66 68 70 71 70 70 69 66 63 63 65 68

GFSFLT1_sfc_temp_006.txt.gz
Temp
78 76 75 74 74 74 73 73 73 73 73 74 74 75 73 71 78 78 79 77 77 75 75 76 75 75 74 74 75 74 74 74 73
77 76 75 74 74 74 74 74 74 73 73 73 74 74 73 74 77 78 78 78 76 75 75 75 75 75 75 75 75 74 74 73 73
77 75 74 74 74 74 75 73 73 73 73 73 73 73 71 73 75 78 78 75 74 74 75 75 76 75 75 75 74 74 74 73 73
75 75 74 74 74 74 74 74 74 74 74 73 73 72 70 75 78 79 78 74 73 73 75 75 75 76 75 75 74 74 74 73 73
73 73 73 73 73 73 73 73 74 74 73 73 72 70 69 76 78 79 79 73 72 73 74 74 75 75 76 75 75 74 74 74 73
78 73 70 71 72 72 72 73 73 72 70 71 70 68 77 80 79 79 74 73 71 72 73 73 74 75 75 75 75 74 74 74 74
76 71 68 70 70 70 71 71 71 71 79 80 71 77 79 79 78 79 73 73 72 73 73 73 73 74 74 75 75 75 74 74 74
80 79 78 78 70 78 78 78 79 79 79 79 80 79 78 79 79 77 72 71 72 72 73 73 73 73 73 74 74 75 74 74 74
79 79 79 78 79 79 79 79 79 79 79 79 79 79 79 79 79 78 69 70 70 71 72 73 73 73 73 74 74 74 74 74 74
79 79 79 79 79 79 79 79 79 79 79 79 79 79 79 80 80 79 69 68 69 69 72 73 73 74 74 74 74 74 74 74 74
77 78 78 79 79 79 79 78 78 78 78 78 79 78 79 79 79 79 78 68 68 68 69 72 73 73 74 74 74 74 74 74 74
77 77 77 79 79 78 78 78 77 77 77 77 78 78 79 78 79 79 79 77 67 67 69 70 72 73 73 74 74 74 74 74 74
76 76 77 77 77 76 76 75 75 75 75 74 75 75 76 77 77 78 78 78 78 73 68 68 69 71 73 74 74 74 74 73 73
76 75 75 76 75 75 74 74 74 71 71 70 72 73 73 75 77 77 77 77 76 77 72 67 66 67 69 71 73 74 74 73 73
75 74 74 75 74 73 73 72 73 73 73 72 72 73 75 76 77 77 78 78 76 77 76 75 74 65 66 67 69 71 72 72 72
71 72 72 71 70 70 70 69 68 69 71 67 68 70 74 76 77 72 75 77 78 78 78 77 74 73 68 67 68 69 70 71 71
69 68 68 68 67 67 67 66 64 66 67 63 62 60 66 73 71 71 74 74 76 76 75 74 74 73 73 70 67 68 69 69 70
67 66 67 66 66 64 64 64 62 60 64 65 61 56 54 60 65 67 70 71 71 73 73 73 75 76 75 71 68 64 65 68 69
65 65 64 64 64 62 62 63 61 60 58 61 64 62 60 54 53 63 64 67 67 68 70 71 71 72 73 71 65 64 65 67 69
62 62 62 61 62 61 60 60 60 60 58 58 57 58 59 59 54 50 55 61 64 66 67 69 71 70 70 71 67 63 64 65 66

GFSFLT1_sfc_temp_009.txt.gz
Temp
78 76 75 75 74 74 74 74 74 74 73 74 74 74 74 73 76 78 78 77 77 77 75 75 76 75 76 75 75 75 75 74 74
77 76 75 74 74 74 74 74 74 74 73 73 74 73 72 74 75 75 78 77 78 77 76 76 76 76 76 76 76 75 75 74 74
76 75 75 75 74 74 74 75 75 74 74 73 73 73 71 73 75 75 76 76 76 76 75 75 76 76 76 75 75 75 75 75 74
75 75 74 74 74 74 74 74 74 74 74 74 73 72 70 73 75 77 78 76 76 75 74 74 76 76 76 76 75 75 75 75 74
74 73 73 73 73 73 73 73 73 74 73 73 72 71 70 73 74 77 78 76 76 75 74 74 74 75 76 76 75 75 75 75 74
79 74 72 71 72 72 73 73 73 72 71 71 71 70 75 77 79 79 76 76 76 75 74 73 74 74 75 75 75 75 75 75 74
79 72 70 71 71 71 71 72 71 70 75 79 71 74 78 79 79 79 75 76 76 75 74 73 73 74 74 74 75 75 75 75 75
81 81 80 78 71 75 78 77 76 79 79 79 80 80 80 80 79 78 74 75 76 75 74 73 73 73 73 74 74 74 74 74 74
81 81 80 80 80 79 79 79 80 79 80 80 80 80 80 80 80 79 72 73 75 75 74 73 73 73 74 74 74 74 74 74 74
80 80 81 80 80 79 79 79 80 80 80 81 80 80 80 81 81 80 71 70 72 74 74 73 73 74 74 74 74 74 73 74 73
78 79 79 79 79 78 77 76 76 77 78 77 79 79 80 80 80 80 79 71 70 72 73 73 73 73 74 75 74 74 74 73 73
78 78 77 75 75 76 76 77 78 77 77 77 78 78 78 78 78 78 79 78 70 69 73 74 73 72 73 74 75 74 74 73 73
78 75 73 76 77 77 76 75 75 75 74 74 75 75 76 76 77 77 78 77 77 74 70 71 72 73 73 73 73 74 73 73 73
77 75 75 76 75 74 73 73 73 71 71 72 73 73 74 75 77 77 77 77 76 76 72 69 68 69 71 72 73 72 72 72 72
74 74 73 73 72 71 70 69 70 69 69 70 69 70 71 72 73 76 74 73 72 73 74 75 75 67 68 71 72 72 72 71 71
71 71 71 70 69 68 68 67 65 65 67 64 64 65 70 70 70 69 70 70 73 72 73 73 72 72 69 70 70 70 70 71 69
69 67 67 67 66 66 64 63 61 63 64 59 58 55 61 65 65 66 68 67 69 68 71 69 69 69 69 68 67 69 71 72 72
66 66 65 65 64 62 62 61 59 57 61 61 58 52 50 55 61 62 65 64 64 66 65 67 68 68 68 67 67 66 66 67 68
64 64 63 63 63 61 60 62 59 58 55 58 61 60 58 50 49 59 59 62 63 62 63 64 65 66 66 64 63 63 62 64 65
62 63 62 61 60 59 58 58 58 58 57 55 55 56 56 57 50 46 51 56 59 61 61 62 62 63 64 65 62 62 62 63 64

GFSFLT1_sfc_temp_012.txt.gz
Temp
78 77 75 74 74 74 74 74 74 73 73 74 74 74 74 72 67 67 69 70 77 78 76 75 75 76 76 76 75 75 76 75 74
77 76 75 74 74 74 74 75 74 74 74 74 74 73 72 67 65 66 67 68 77 78 77 76 76 76 76 76 76 76 76 76 75
75 76 75 75 74 74 74 74 75 75 74 74 74 73 71 69 64 66 66 70 77 78 77 76 75 76 76 76 76 75 76 76 75
75 75 75 74 74 74 73 74 74 74 74 74 73 72 70 64 65 69 67 72 78 78 77 75 75 75 76 76 76 76 75 75 75
74 73 73 74 73 73 73 73 73 73 73 73 72 71 70 64 65 67 68 74 78 78 77 75 75 75 75 76 76 76 75 75 75
71 71 71 72 72 73 73 73 73 72 70 71 71 70 65 65 67 67 72 76 79 78 77 76 75 75 74 74 75 75 75 75 75
73 69 71 72 72 71 72 73 72 70 68 69 70 66 66 67 68 68 74 77 78 78 77 75 75 74 74 74 74 74 75 75 75
68 67 67 65 67 66 69 68 68 66 68 69 69 67 67 68 68 71 74 76 78 78 77 76 75 74 74 74 74 74 74 74 74
69 68 69 68 68 67 68 68 70 72 73 73 72 72 70 69 71 71 72 74 77 78 77 76 75 75 74 74 74 74 74 74 74
69 68 69 72 73 72 71 72 72 73 74 74 73 74 74 74 74 74 70 71 73 76 77 77 76 76 75 74 73 73 74 74 73
68 69 72 71 71 72 71 71 70 70 71 71 68 67 68 67 68 70 69 70 71 73 76 77 76 76 76 76 74 73 73 73 73
70 70 69 70 70 69 66 66 66 64 66 64 66 66 66 66 66 67 67 69 69 71 74 76 76 76 76 76 75 74 73 72 72
71 68 65 65 64 63 62 61 61 60 60 60 62 61 66 67 65 68 68 68 71 70 71 72 74 75 76 76 75 75 73 73 72
64 63 62 62 61 60 60 59 57 56 58 61 61 61 60 63 67 64 65 66 67 66 67 67 67 69 72 74 74 73 73 72 71
61 61 60 60 59 57 57 56 57 55 54 61 59 59 60 60 57 60 64 63 63 64 64 64 64 66 68 70 71 72 71 71 72
59 58 58 57 56 55 57 54 52 52 52 50 53 52 55 57 59 61 60 61 62 61 62 61 62 64 66 67 68 69 70 70 71
60 56 55 55 54 53 52 51 49 50 51 47 47 43 49 52 56 57 58 56 58 60 60 60 61 60 60 61 64 65 67 68 68
56 55 54 53 52 50 50 49 49 46 48 50 46 40 40 47 50 53 52 56 56 53 57 59 59 60 58 60 60 62 64 66 66
56 55 53 52 51 49 49 53 48 47 45 47 53 47 45 42 41 47 52 50 54 53 53 56 55 57 57 59 59 61 60 62 63
54 53 52 50 49 48 48 47 46 47 45 45 44 45 44 45 42 39 43 48 50 51 53 51 54 55 55 53 57 58 58 60 61

GFSFLT1_sfc_temp_015.txt.gz
Temp
77 77 75 74 74 74 73 73 73 73 73 73 74 74 74 72 64 63 65 67 74 78 77 75 75 75 76 76 76 75 75 75 75
77 76 75 74 74 74 74 75 74 74 74 74 74 74 72 66 62 63 64 65 74 77 78 77 76 76 76 76 76 76 76 76 76
77 76 75 75 75 74 74 74 74 74 74 74 74 73 71 68 63 63 63 68 75 77 78 77 76 76 76 76 76 76 76 75 76
76 76 75 74 74 74 74 74 74 74 74 74 73 72 71 65 63 66 64 69 74 77 78 77 76 76 75 75 76 76 76 76 75
74 73 73 74 74 73 73 73 74 73 73 73 72 71 70 65 63 64 65 71 75 77 78 78 77 76 75 75 75 75 75 76 75
68 69 71 72 73 73 73 73 73 72 70 70 70 69 65 63 65 65 69 73 75 78 78 77 77 76 75 74 74 74 75 75 75
70 68 70 72 72 72 73 73 72 70 65 65 67 66 66 64 65 66 70 74 78 79 78 77 76 76 75 75 74 74 74 75 75
66 65 65 65 65 65 67 66 65 65 67 68 68 69 68 66 68 70 71 75 78 79 78 77 76 76 75 75 74 73 74 74 74
65 64 64 64 65 67 68 69 71 70 70 70 70 71 69 69 70 69 69 72 76 77 78 77 76 76 75 75 75 74 73 73 73
66 65 66 70 69 70 70 70 70 66 66 66 64 64 64 65 65 64 66 69 73 75 76 77 78 77 76 76 75 74 74 73 73
66 68 68 69 70 69 65 61 60 60 61 63 63 62 63 62 63 66 64 68 69 71 74 75 76 75 75 75 74 74 74 74 73
69 68 66 66 62 61 60 60 59 59 61 58 59 60 59 60 59 60 61 61 65 68 72 72 73 73 73 74 74 74 73 72 72
66 63 58 58 58 57 56 55 55 54 54 53 55 55 57 57 58 59 59 59 61 64 67 68 69 69 70 71 72 72 71 72 71
60 57 56 56 55 54 55 53 51 50 51 55 54 55 52 54 59 55 58 57 57 59 63 63 64 65 67 69 70 70 69 69 69
57 55 55 55 53 52 52 51 50 49 49 56 54 52 51 51 51 54 58 55 58 55 58 53 58 62 64 65 66 67 67 68 68
54 53 53 52 51 50 51 49 48 48 48 46 49 47 51 50 54 55 54 55 55 57 54 56 58 57 60 62 63 64 65 65 66
55 52 51 50 49 48 47 47 46 46 46 43 42 40 44 48 53 50 55 49 54 53 56 54 55 52 51 54 59 61 63 64 64
53 51 50 48 47 46 45 45 45 42 44 45 43 38 36 43 45 50 47 52 49 51 50 53 54 52 52 53 55 57 58 62 62
52 51 49 48 47 45 45 48 44 43 41 43 49 43 41 36 36 43 48 47 50 49 49 51 50 53 50 53 53 56 57 58 60
51 50 48 47 46 45 45 44 43 43 42 41 41 40 40 39 37 35 38 45 47 48 48 46 50 48 50 48 51 55 55 57 58

GFSFLT1_sfc_temp_018.txt.gz
Temp
78 77 75 74 73 73 73 73 73 73 73 73 74 74 73 72 62 61 63 65 71 75 77 76 75 75 75 76 76 75 75 75 75
77 77 75 74 74 73 74 74 74 74 74 74 74 73 72 66 62 61 61 62 72 75 77 77 77 76 76 76 76 76 76 76 76
77 76 75 74 74 74 74 74 74 74 74 74 74 73 71 67 62 61 61 66 73 75 76 77 77 77 76 76 76 76 76 76 76
76 75 75 74 74 74 74 73 74 74 74 74 73 72 70 65 62 64 63 68 73 75 76 77 77 77 76 75 75 75 75 76 75
73 73 73 74 74 73 73 74 74 74 73 73 72 70 69 64 63 63 63 70 73 75 76 77 78 77 76 75 75 75 75 75 75
67 69 70 72 73 73 73 74 73 72 70 70 70 69 64 62 63 63 68 71 74 76 76 77 78 77 76 76 75 74 74 75 75
68 66 69 72 72 72 73 73 72 70 65 64 68 67 67 66 65 66 69 72 75 77 77 77 77 77 76 76 75 75 74 74 74
63 62 63 63 65 64 66 65 64 67 67 65 65 65 65 63 63 67 70 73 76 77 77 76 76 76 76 75 75 75 75 74 73
62 62 63 62 66 63 67 68 69 66 64 63 62 62 61 61 63 63 67 70 73 74 75 75 76 76 76 76 75 74 73 73 73
63 63 64 68 68 68 66 65 61 59 60 60 59 58 58 58 60 58 64 68 70 72 73 74 74 75 75 75 75 74 73 73 73
64 65 67 65 65 64 61 56 55 55 55 57 57 56 55 55 56 57 57 65 67 69 71 71 72 72 72 73 72 72 72 72 72
65 64 63 62 58 57 55 54 54 53 55 53 55 55 53 53 53 55 56 56 62 65 68 68 69 69 70 70 71 70 70 69 69
63 59 55 55 54 53 53 51 51 50 49 49 51 50 51 52 53 54 53 54 56 58 64 64 65 65 67 68 68 68 68 68 68
57 54 54 53 52 51 51 50 48 47 47 51 51 50 49 50 54 50 52 52 52 53 59 59 60 62 64 65 66 66 66 65 66
54 52 52 52 50 49 49 48 47 46 45 52 52 48 48 47 48 48 52 50 51 50 51 49 54 59 61 62 62 63 63 64 64
52 50 50 50 48 46 48 46 45 45 44 43 44 45 46 46 51 48 47 48 51 50 50 52 52 51 57 58 59 60 61 62 62
53 49 48 48 47 46 45 44 43 43 43 41 39 38 41 45 50 45 49 45 49 48 52 49 50 49 47 50 56 57 58 60 61
50 49 47 46 45 43 43 43 42 40 42 42 41 35 33 40 42 46 43 48 44 46 47 48 49 49 47 48 50 54 56 57 59
50 49 47 46 45 43 43 46 42 41 39 40 46 41 39 34 33 39 45 42 46 44 42 45 46 48 48 49 51 53 54 55 57
49 48 46 45 44 43 42 42 41 40 39 39 38 37 37 37 33 33 35 43 45 45 46 42 46 46 45 43 47 52 53 55 55

GFSFLT1_sfc_temp_021.txt.gz
Temp
78 77 75 74 73 73 73 73 73 73 73 73 74 74 73 72 62 60 61 63 69 74 75 76 76 75 75 75 76 76 75 75 75
77 77 75 74 73 73 73 74 74 74 74 74 75 75 72 66 62 61 60 60 71 74 75 76 77 76 76 75 76 76 76 76 76
76 75 74 74 74 74 73 74 74 74 74 74 74 73 71 67 62 61 60 64 71 74 75 76 76 77 77 76 76 76 76 76 76
76 75 74 74 74 74 74 73 74 74 74 74 73 72 70 65 63 64 62 67 72 74 75 76 76 77 77 76 76 75 75 76 76
73 73 73 74 74 74 73 73 74 74 73 73 72 70 69 64 63 62 62 70 73 75 75 76 76 77 77 76 75 75 75 75 75
66 68 70 72 73 73 73 74 73 72 70 70 70 69 64 64 61 62 67 71 74 75 76 75 76 76 77 76 76 75 75 75 74
67 65 68 71 71 71 72 72 71 68 64 63 66 63 62 62 62 62 70 73 75 76 76 76 76 76 76 75 75 75 75 75 74
61 61 61 61 64 63 64 65 67 67 62 62 60 61 60 58 60 63 68 72 74 75 75 75 75 75 75 75 75 75 74 74 73
60 60 61 61 66 66 66 65 65 62 60 58 58 58 57 56 58 58 66 69 72 73 73 73 73 74 74 75 74 73 73 73 72
61 64 66 65 66 65 63 61 56 55 56 56 55 54 53 53 55 54 62 66 67 70 71 71 72 71 71 72 72 72 72 71 71
64 65 64 63 63 61 56 53 52 51 52 53 53 51 50 50 52 53 52 63 64 66 68 69 68 68 69 69 70 70 69 69 69
64 62 61 59 56 54 53 52 51 50 52 50 51 51 49 50 50 51 51 52 59 62 65 65 65 65 67 68 68 68 67 67 67
62 58 54 53 52 51 50 48 49 47 47 46 48 48 49 49 49 49 49 50 51 55 61 61 62 63 64 65 65 65 65 64 65
59 53 51 50 49 48 49 47 46 44 46 49 49 46 46 47 51 47 49 48 49 48 55 57 57 59 61 62 63 63 63 62 63
52 50 49 49 48 46 46 45 45 43 42 49 49 45 45 45 45 45 49 47 47 47 47 45 48 56 58 59 60 61 61 61 61
50 48 48 47 46 44 45 44 43 43 42 41 42 43 44 44 45 44 44 45 47 45 46 48 47 46 55 55 57 58 59 59 60
50 47 46 46 45 44 43 42 41 41 41 39 37 36 39 42 49 43 44 43 44 45 48 45 46 45 44 47 55 55 56 58 59
48 47 46 44 43 42 41 41 40 38 40 40 39 34 32 36 39 42 41 45 41 42 45 45 46 45 43 47 47 52 54 56 57
48 47 45 44 43 42 42 43 40 39 37 39 44 39 37 33 31 37 43 39 44 40 39 42 43 43 43 47 50 51 53 54 55
47 46 44 43 42 41 41 40 39 38 37 36 36 35 36 35 31 32 33 41 42 43 43 40 39 42 43 40 43 51 52 53 54

GFSFLT1_sfc_temp_024.txt.gz
Temp
77 77 75 74 73 73 73 73 73 73 73 73 74 74 73 72 62 61 61 62 68 73 75 75 76 76 76 75 76 76 76 75 75
78 76 75 74 73 73 73 73 73 74 73 74 74 74 72 66 62 61 60 60 70 73 75 75 76 77 76 76 77 77 76 76 77
77 76 74 74 74 73 73 74 74 74 74 74 74 73 71 66 62 62 61 65 71 73 75 75 76 76 77 77 76 76 76 76 76
75 75 74 74 74 74 74 74 74 74 74 74 73 72 70 65 63 63 62 66 72 74 75 75 76 76 77 76 76 76 76 75 76
73 73 73 74 74 74 74 74 74 74 73 73 72 70 69 63 62 61 61 70 73 75 75 75 76 76 77 76 76 76 75 75 75
65 68 70 72 73 73 73 73 73 71 68 68 68 67 61 61 62 60 69 73 75 76 76 76 76 75 75 74 75 76 76 76 75
65 64 67 70 70 70 71 70 70 68 63 61 63 59 59 58 59 60 71 74 75 75 75 75 75 75 75 75 75 74 74 75 75
60 60 60 60 63 62 65 67 65 64 59 58 57 57 56 55 57 62 68 72 73 74 73 73 74 74 74 74 73 73 73 73 72
58 59 60 61 65 65 64 63 60 56 57 55 55 54 53 53 54 55 65 67 70 72 71 72 71 71 71 72 71 71 71 71 71
60 65 65 64 64 63 60 55 54 53 54 53 52 51 49 50 52 50 63 65 66 68 69 70 69 69 69 70 70 69 69 69 69
64 63 62 61 61 56 53 51 50 49 50 51 50 48 47 48 49 49 50 62 63 66 66 67 66 67 68 68 68 68 67 67 67
63 61 59 58 54 52 50 49 49 48 50 48 49 48 46 47 47 48 48 50 57 61 63 63 63 64 65 66 66 66 66 65 65
61 58 55 51 50 49 48 47 47 45 44 44 46 45 46 46 46 47 46 47 48 52 59 59 60 61 62 63 64 64 64 63 63
59 56 51 48 47 46 47 45 44 43 44 47 46 44 43 45 49 44 46 46 46 45 53 55 55 58 59 61 62 62 62 62 62
53 49 48 48 46 45 45 44 43 42 40 47 47 42 43 43 43 43 47 45 45 44 45 43 45 55 56 58 59 59 60 60 60
48 47 46 46 45 43 44 42 41 41 40 40 41 41 42 42 43 43 42 43 44 43 43 47 44 44 53 54 55 57 58 58 59
49 46 45 45 44 42 41 41 40 39 39 37 35 35 39 41 47 41 43 40 42 42 46 43 44 43 42 45 54 54 55 57 58
47 46 44 43 42 41 40 40 39 38 38 38 37 33 31 33 38 40 39 40 40 40 42 43 43 43 41 45 45 51 53 55 56
46 45 44 43 42 41 41 42 38 38 36 37 42 37 35 31 30 36 40 37 42 38 37 41 41 41 41 45 48 50 52 54 55
45 44 43 42 41 40 40 38 37 37 36 35 35 33 34 32 29 30 32 39 40 40 39 37 39 41 40 39 42 49 51 53 54

GFSFLT1_sfc_temp_027.txt.gz
Temp
78 77 75 74 73 74 74 73 74 73 73 74 74 75 74 72 74 73 73 73 70 73 75 75 76 75 76 76 76 76 76 76 75
77 76 75 74 73 73 74 74 74 74 74 74 74 74 72 75 74 74 73 72 71 73 75 75 76 77 77 77 76 77 77 77 76
77 76 75 74 74 74 74 74 74 74 74 74 74 73 71 74 74 73 73 70 71 74 75 75 76 76 76 77 77 77 77 77 76
76 75 75 74 74 74 74 74 74 74 74 74 73 72 70 76 75 73 74 69 72 74 75 75 76 76 76 76 77 76 76 76 76
72 73 73 74 74 74 73 74 74 73 72 71 70 69 68 74 73 74 74 72 75 76 76 75 76 75 75 75 75 76 76 76 76
73 69 70 72 72 72 73 73 71 69 67 68 67 68 73 74 73 74 71 74 76 76 75 75 75 76 75 75 75 75 74 75 75
72 68 67 69 69 69 70 70 68 67 69 71 68 71 71 71 71 72 70 73 75 75 74 74 74 74 74 74 74 74 73 73 73
73 73 73 73 68 73 69 67 66 68 69 69 69 68 68 70 69 68 68 70 73 73 72 73 72 72 72 72 72 72 72 71 71
71 72 71 71 68 66 64 65 67 67 67 67 67 66 66 68 67 66 65 68 70 71 72 70 69 70 70 71 70 70 70 70 70
71 69 66 65 64 64 65 66 66 65 65 65 65 64 64 65 65 65 63 64 67 68 68 68 68 68 69 69 68 68 68 68 68
65 64 63 62 62 61 65 64 63 62 63 63 62 62 63 63 62 63 63 61 64 65 66 65 65 66 67 67 66 67 67 67 66
64 62 60 60 59 63 63 62 62 61 61 61 62 62 61 61 61 61 61 61 59 61 62 62 63 63 64 65 65 66 65 65 65
62 59 58 58 61 61 60 60 60 59 59 60 61 60 60 60 60 59 60 59 59 58 58 58 59 60 61 63 63 64 63 63 63
60 60 59 60 59 59 60 57 57 56 57 59 60 58 58 58 59 58 58 57 57 58 55 54 55 56 58 60 61 62 61 61 61
56 58 58 59 57 57 57 56 55 54 53 56 57 56 57 57 58 58 58 57 55 56 55 55 56 54 55 57 58 59 59 59 60
55 57 56 56 55 55 56 55 53 52 53 54 55 56 55 56 57 57 56 55 54 55 55 56 55 55 53 54 54 56 57 58 58
56 56 55 54 54 53 53 53 52 51 50 50 49 48 54 56 57 55 54 54 54 54 55 54 53 53 53 52 52 53 54 56 57
55 54 54 53 53 51 50 51 50 49 49 49 51 47 45 45 52 53 53 53 52 52 52 51 52 51 51 51 51 50 52 54 56
54 53 53 52 51 51 50 50 49 50 47 49 49 50 48 43 42 49 51 50 49 49 49 50 50 50 50 49 48 49 50 53 55
52 53 51 51 50 49 49 48 48 48 48 47 46 46 46 45 41 39 43 47 48 48 48 48 48 49 49 48 48 49 50 52 53

GFSFLT1_sfc_temp_030.txt.gz
Temp
77 76 75 74 74 74 74 74 74 74 74 74 74 75 73 72 80 80 79 78 72 73 74 75 76 76 76 76 76 76 76 76 76
77 76 74 74 74 74 74 74 74 74 74 74 74 74 72 79 80 80 79 79 72 74 75 75 76 76 77 77 77 76 77 77 77
77 76 74 74 74 74 74 74 74 74 74 74 74 73 71 78 81 80 80 74 72 74 75 76 75 76 76 76 77 77 77 77 77
77 75 75 74 74 74 74 74 74 74 74 73 72 71 70 80 82 80 81 70 74 75 75 76 76 75 76 76 76 76 76 76 76
74 73 74 74 74 73 73 73 73 71 71 70 69 69 71 82 80 82 78 73 76 76 76 76 76 76 76 75 74 75 75 76 76
78 70 71 72 72 72 72 72 70 69 68 68 68 70 81 81 80 81 71 74 76 75 74 74 75 75 74 74 74 74 74 74 73
80 72 69 70 70 70 70 70 69 72 81 79 73 80 79 79 78 78 69 73 74 74 73 73 72 72 72 72 72 72 72 72 72
81 81 80 81 70 80 74 74 79 76 77 78 78 76 77 79 78 71 68 71 73 72 72 71 70 70 71 71 71 70 70 70 70
81 81 80 79 79 73 70 76 76 76 75 75 76 75 75 77 76 70 65 68 70 71 70 69 69 69 70 70 69 69 69 69 69
80 79 78 73 70 71 77 77 76 75 74 74 74 73 74 74 75 74 62 66 67 68 68 67 67 67 68 68 67 67 68 68 68
75 68 67 66 70 70 76 75 74 74 74 72 72 72 73 73 72 73 68 62 64 65 65 64 64 65 65 66 66 66 66 66 66
69 66 66 65 67 72 74 73 74 73 72 70 71 71 71 71 71 71 70 67 60 61 61 61 62 62 63 64 65 65 65 64 64
66 64 64 69 69 72 72 72 71 69 69 69 71 70 68 69 69 69 69 67 68 61 58 58 58 59 61 62 63 63 63 63 62
66 65 68 71 70 69 69 67 68 66 66 67 69 68 67 66 67 66 65 64 64 64 59 56 57 57 58 59 60 61 61 61 61
63 68 67 69 67 67 66 65 64 62 63 64 66 66 67 66 65 66 66 64 62 62 60 61 62 58 57 57 58 58 59 59 59
60 67 67 67 65 64 65 63 61 60 61 62 65 65 64 64 64 65 65 62 61 61 62 62 61 61 57 57 55 56 57 57 58
60 66 65 64 63 62 62 62 60 59 59 58 58 58 62 64 63 63 63 63 62 61 60 59 58 58 58 56 53 53 54 55 56
64 61 64 63 63 60 59 59 59 58 58 57 58 55 54 55 61 60 60 60 59 59 58 57 57 57 57 55 54 52 52 53 55
59 62 63 62 61 59 58 59 58 59 55 57 57 57 55 50 50 58 58 59 56 56 56 56 56 56 55 53 52 51 51 52 54
61 62 61 60 60 59 58 56 57 57 58 55 54 54 53 53 48 46 52 55 57 56 55 54 54 55 55 54 52 50 50 51 52

GFSFLT1_sfc_temp_033.txt.gz
Temp
77 75 74 74 74 74 74 74 74 74 74 74 75 74 73 73 81 80 79 79 74 74 75 75 76 76 76 76 76 77 76 76 76
77 75 74 74 74 74 74 74 74 74 74 74 74 74 73 76 81 81 80 77 74 74 76 76 76 76 76 77 77 77 77 77 77
77 75 74 74 74 74 74 74 74 74 74 74 74 73 72 77 77 77 77 73 75 75 76 76 76 76 76 76 76 77 77 77 77
76 75 75 74 74 74 74 74 74 74 73 72 72 71 71 76 80 80 79 73 77 76 76 76 76 76 76 75 75 75 75 76 76
74 73 74 74 74 73 73 73 72 72 71 70 70 71 71 80 80 80 73 74 76 76 75 75 75 75 74 74 74 74 75 74 74
76 71 71 73 73 72 72 71 70 70 69 69 70 69 80 80 79 77 70 74 75 75 74 74 73 73 73 73 73 73 73 72 72
80 72 70 71 71 71 71 70 70 69 80 78 73 79 79 79 77 70 69 72 74 73 73 71 71 72 72 72 71 71 71 71 71
78 76 76 76 69 74 75 76 79 77 77 77 78 76 77 78 77 67 67 70 72 73 71 70 70 70 71 70 70 69 70 70 69
80 81 80 77 79 76 75 78 77 77 77 76 76 75 75 75 75 63 64 68 70 70 69 69 68 68 69 69 68 68 68 68 68
81 81 80 77 76 75 77 77 77 76 75 75 75 74 75 74 73 69 63 66 67 68 67 67 67 67 67 67 67 67 67 67 67
80 77 74 72 73 75 77 75 74 74 74 73 73 73 73 72 71 71 63 62 64 65 64 64 64 65 65 66 66 66 66 66 66
77 74 71 71 73 74 74 74 73 72 72 72 72 71 71 70 70 69 68 62 61 61 61 62 62 62 63 64 65 65 64 65 64
74 70 68 71 72 73 72 71 70 69 69 69 70 69 69 69 69 68 67 66 66 59 59 59 59 60 61 62 63 63 63 63 63
72 69 71 72 72 71 70 68 67 66 65 66 68 67 66 67 67 66 65 64 63 63 59 58 59 60 61 60 61 61 61 60 61
71 70 70 71 69 68 67 66 65 63 62 65 65 65 65 65 64 65 65 65 62 62 61 60 61 61 61 60 60 58 59 59 59
68 67 66 70 68 67 67 65 63 60 61 61 62 63 63 63 64 64 64 64 62 62 61 60 59 59 59 59 58 57 57 57 58
66 66 62 66 65 64 64 64 60 59 59 56 57 56 60 62 63 64 62 62 62 61 60 59 58 57 56 56 56 56 55 55 56
65 65 66 65 65 61 61 60 60 58 58 58 57 53 52 54 61 61 61 60 60 59 58 58 57 56 55 55 55 54 53 54 55
62 60 62 63 63 61 59 61 59 59 55 57 58 57 55 49 48 58 58 60 57 57 57 57 56 55 54 55 54 54 53 53 54
61 60 61 62 62 61 59 58 58 57 57 55 54 55 54 54 48 45 50 55 57 57 56 55 55 55 54 52 53 53 52 53 53

GFSFLT1_sfc_temp_036.txt.gz
Temp
76 75 74 74 74 75 75 74 74 74 74 75 75 74 74 72 72 71 72 69 75 75 76 75 76 76 76 76 76 77 77 76 77
76 75 74 74 74 74 74 75 74 74 74 75 74 74 72 70 72 75 72 72 76 76 76 76 76 76 76 76 76 76 77 77 77
76 75 74 74 74 74 74 74 74 74 74 74 74 73 71 71 73 74 71 74 77 77 76 76 76 76 76 75 76 76 76 77 77
76 75 74 74 74 74 74 74 74 74 73 72 72 71 71 66 73 73 68 74 77 76 75 76 76 75 75 75 75 75 75 74 74
74 73 74 74 74 73 73 73 72 72 71 71 71 70 70 67 69 67 68 74 76 75 75 75 74 74 73 73 73 73 73 73 72
71 71 71 72 73 73 72 72 71 70 70 71 71 70 67 68 66 63 71 73 75 74 73 73 72 72 72 72 72 71 71 71 71
73 68 70 72 71 71 71 71 71 69 66 65 69 66 66 65 63 62 70 73 74 73 71 71 71 71 71 71 70 70 70 70 70
68 64 66 65 66 67 67 67 68 68 67 66 64 65 64 62 60 64 68 70 72 71 70 70 69 70 70 69 69 69 69 69 69
67 67 67 69 69 66 66 65 67 67 66 65 64 64 62 61 57 60 66 69 70 70 69 68 68 68 68 68 68 68 68 68 68
69 70 69 66 66 65 64 65 65 64 64 63 63 61 60 60 58 55 64 66 67 67 67 67 67 67 67 67 67 67 67 67 67
69 67 65 64 64 64 64 63 62 60 61 61 61 59 59 59 59 55 56 64 65 65 65 65 65 65 65 66 66 66 66 66 66
67 63 62 61 62 64 63 62 60 59 61 58 60 59 57 58 58 57 54 56 62 62 62 62 63 63 64 64 65 64 64 64 64
64 61 60 61 62 61 60 58 57 56 55 54 56 56 57 57 57 58 56 54 55 59 60 61 62 61 63 63 63 63 62 62 62
63 60 60 62 60 59 59 55 55 53 52 56 55 54 55 55 60 56 56 55 54 53 58 59 61 61 63 63 62 62 61 60 60
61 60 61 61 58 57 56 54 53 51 51 58 57 53 54 54 53 54 58 54 54 53 53 50 51 60 61 61 61 60 60 59 59
60 59 60 59 57 56 56 54 52 49 50 49 50 51 52 52 52 53 52 52 53 52 51 49 48 49 58 59 59 59 59 58 58
60 58 58 58 59 58 54 53 50 49 48 46 45 44 48 50 53 51 54 51 51 52 52 49 49 47 46 49 58 57 57 57 57
58 57 58 58 56 54 53 52 51 47 47 48 46 42 40 42 48 49 49 50 48 47 49 50 50 48 46 49 50 55 56 56 57
57 57 57 56 54 52 51 53 50 48 45 46 52 46 44 39 37 44 46 48 49 47 45 47 48 48 46 50 53 55 55 56 56
59 58 58 57 54 53 51 50 49 48 46 45 44 44 43 43 38 35 39 43 45 45 46 45 45 47 46 44 48 54 55 55 55

GFSFLT1_sfc_temp_039.txt.gz
Temp
76 75 75 75 75 75 75 75 74 74 74 75 75 74 74 72 70 70 72 68 76 76 76 76 75 76 76 76 76 76 77 76 76
75 75 74 74 74 75 75 75 74 74 74 75 74 74 72 68 71 71 71 72 77 76 77 76 75 76 75 76 76 76 76 77 77
75 74 74 74 74 74 74 75 74 74 74 74 73 72 71 69 70 70 70 74 77 76 76 76 75 76 76 76 74 74 75 75 76
75 74 74 74 74 74 74 74 74 74 73 73 72 71 70 64 68 69 66 75 76 75 75 75 75 74 74 74 74 74 73 73 73
74 73 73 74 74 73 73 73 73 73 72 72 72 71 69 64 64 64 67 75 75 75 74 74 74 74 73 73 72 72 72 72 72
71 70 71 72 73 73 73 73 72 71 70 71 71 69 63 61 61 63 72 74 75 73 72 72 72 72 71 71 71 71 71 71 70
71 68 70 72 72 72 72 72 71 69 64 64 67 64 62 60 59 62 71 73 74 72 71 71 71 71 70 70 70 70 70 70 69
65 64 65 64 66 65 67 66 65 64 64 63 62 62 60 57 57 64 70 72 73 71 70 69 69 69 69 69 69 68 69 69 68
63 62 62 62 63 62 62 62 64 63 63 62 61 60 58 55 55 60 67 70 71 69 69 68 68 68 68 68 68 67 67 68 67
64 63 63 63 63 62 61 61 61 61 60 59 59 58 56 53 54 54 64 67 68 68 67 67 67 67 67 67 67 67 66 66 66
64 63 63 62 62 61 60 60 59 58 58 58 57 56 55 53 52 53 56 65 65 65 66 65 65 65 66 66 66 65 65 65 65
64 62 60 60 61 61 60 59 57 56 57 55 56 56 55 55 52 52 52 56 63 64 64 64 64 64 64 65 65 64 64 63 63
63 61 58 59 59 58 57 56 54 52 52 52 53 53 54 54 53 52 51 51 53 59 61 62 63 63 64 65 64 64 62 62 61
63 60 58 59 57 56 57 52 52 50 50 53 52 51 52 53 56 52 52 51 50 50 59 60 60 62 62 63 63 63 61 61 60
61 59 59 58 56 54 54 52 49 49 48 56 54 50 51 52 51 51 54 51 51 50 50 48 50 59 60 61 61 61 61 60 60
61 59 57 56 56 54 53 50 50 47 47 48 48 48 49 50 50 50 50 51 51 50 48 47 46 48 57 58 59 60 60 59 59
61 59 56 56 54 53 53 54 51 47 46 46 44 43 47 48 50 48 51 48 49 49 50 48 48 45 44 47 58 57 58 59 59
57 57 56 54 53 52 51 51 50 48 47 46 46 42 41 40 45 46 46 47 45 45 46 47 48 46 44 48 49 55 56 58 59
58 54 54 52 52 54 52 51 49 48 46 46 49 44 43 40 39 43 43 44 46 43 43 43 44 45 44 48 52 55 56 57 58
58 56 58 56 54 50 52 49 49 48 47 45 43 42 41 40 37 35 38 41 43 43 42 42 42 43 43 42 46 54 56 57 57

GFSFLT1_sfc_temp_042.txt.gz
Temp
76 75 75 75 75 75 75 75 74 74 74 75 75 74 73 71 68 70 70 67 75 76 78 75 75 75 76 76 75 75 76 76 75
75 74 74 74 74 75 75 74 74 74 74 74 74 73 71 66 66 69 71 72 76 76 76 75 75 76 75 75 76 76 76 76 76
75 74 74 74 75 75 75 75 74 74 74 74 73 72 70 67 67 69 66 74 76 76 76 75 75 75 75 75 74 74 74 74 74
75 74 74 74 74 74 74 74 74 74 74 73 72 71 70 63 65 68 65 74 75 75 75 75 74 74 74 73 73 73 73 73 73
74 73 73 74 74 74 73 74 74 73 73 73 71 69 67 62 63 64 67 74 75 74 73 73 73 73 72 72 72 72 72 71 71
69 69 71 73 73 73 73 73 72 71 70 70 69 66 61 59 61 62 72 74 74 73 72 72 72 72 71 70 70 70 70 70 70
70 67 70 72 72 72 73 72 71 68 63 62 65 60 59 59 59 61 71 73 73 72 71 71 71 70 70 69 69 69 69 69 69
65 64 66 65 66 64 66 64 63 61 61 60 59 58 57 55 56 64 71 73 72 70 70 69 69 69 69 68 68 68 68 68 68
63 64 62 62 62 61 60 60 60 61 60 58 57 56 54 53 54 60 68 71 71 70 69 68 68 68 68 68 67 67 67 67 67
63 62 60 60 61 60 59 59 59 58 58 57 56 55 52 51 53 54 65 68 68 68 68 67 67 67 67 67 66 66 66 66 65
63 60 61 60 60 60 59 58 57 56 56 56 55 53 51 50 51 52 57 66 66 66 66 66 66 66 66 66 65 65 65 64 64
63 62 60 59 59 59 57 56 55 54 55 53 54 53 51 50 50 51 51 56 63 65 65 65 64 64 65 66 65 65 63 63 62
62 60 59 58 58 57 56 54 52 51 51 50 51 51 52 51 50 50 50 50 53 60 62 63 63 63 64 65 65 64 62 62 61
62 60 58 58 56 55 56 51 52 49 49 51 50 49 50 51 53 49 49 49 49 49 59 60 61 61 62 63 63 63 62 61 61
61 59 59 57 55 53 53 51 48 48 48 55 52 48 49 49 48 49 52 49 49 48 48 47 50 59 60 61 61 61 61 61 60
61 59 58 56 56 53 53 50 49 46 46 47 48 48 48 48 48 47 47 49 49 47 46 45 45 46 58 58 59 60 60 60 60
60 60 58 57 53 52 51 51 47 47 45 46 44 45 49 49 48 47 49 46 47 47 48 45 46 44 43 46 57 58 59 59 60
60 59 57 56 55 52 51 50 50 45 45 46 47 43 43 42 46 45 45 45 44 44 45 45 45 44 42 46 47 54 57 58 59
57 56 56 54 52 51 50 51 51 47 44 44 49 45 44 42 42 44 44 44 45 43 42 42 43 42 41 45 49 53 56 58 59
56 55 53 53 52 53 53 51 51 49 47 44 42 42 41 40 39 38 39 41 42 42 41 41 39 40 40 40 45 53 55 56 57

GFSFLT1_sfc_temp_045.txt.gz
Temp
76 76 75 75 74 75 75 75 74 74 74 75 75 74 73 70 65 65 66 66 75 76 77 75 75 75 75 76 76 75 76 76 75
75 75 74 74 74 74 74 74 74 74 74 74 74 73 71 65 64 66 66 69 76 76 75 75 75 75 75 75 75 75 74 75 76
75 74 74 74 74 74 74 74 74 74 74 74 73 71 69 66 64 64 65 74 76 76 75 75 75 75 75 74 73 74 74 73 74
74 74 74 74 75 75 74 74 74 74 73 73 72 71 68 62 64 67 65 74 76 75 75 74 75 74 73 73 73 72 72 72 72
73 73 73 74 74 74 74 74 74 73 73 72 70 68 66 61 62 63 67 74 75 74 73 73 73 72 72 71 71 71 71 71 71
69 68 71 73 73 73 73 73 72 71 69 69 68 65 59 58 60 62 72 74 73 73 72 72 72 71 70 70 70 70 70 70 69
68 66 69 72 72 72 73 72 71 66 61 60 63 57 57 57 58 61 72 74 73 72 71 71 70 70 70 69 69 69 69 69 68
64 63 65 65 66 64 65 63 61 60 59 58 56 56 55 54 56 62 71 73 72 71 70 69 69 69 69 68 68 68 68 68 68
63 63 63 62 62 60 59 59 59 59 58 57 55 54 53 52 53 59 68 71 71 70 69 69 68 68 68 68 67 67 67 66 66
62 62 61 61 60 59 58 58 58 57 56 56 54 52 51 51 52 53 65 68 69 69 68 68 67 67 67 67 66 66 65 65 65
63 61 60 59 59 58 58 57 56 55 55 54 53 51 50 50 51 52 57 66 67 67 67 66 66 66 67 66 66 65 64 64 63
62 61 59 59 58 58 56 55 54 53 54 51 52 51 49 49 49 51 52 56 64 65 66 65 65 65 66 66 65 65 63 63 62
61 60 58 57 57 56 54 53 51 51 51 49 49 50 50 49 48 49 49 50 52 60 63 63 64 64 64 65 64 64 63 62 62
61 59 58 57 55 54 54 51 51 50 48 50 48 48 48 48 51 47 48 48 49 48 60 61 61 62 62 63 63 63 63 62 61
61 58 57 57 54 53 52 51 48 48 47 53 50 47 47 47 46 47 50 48 48 47 48 46 48 59 61 61 62 62 62 62 61
61 59 57 57 57 56 53 49 49 46 45 46 46 46 46 46 46 47 47 48 48 47 46 45 45 45 55 58 59 60 61 61 61
60 58 58 58 53 52 51 50 47 46 44 46 43 43 46 46 46 45 48 46 47 47 47 46 45 44 43 46 56 57 59 60 60
62 60 59 58 58 54 53 50 50 45 43 45 47 40 42 41 43 43 44 45 43 43 44 45 45 44 42 44 45 52 55 58 59
60 59 59 57 55 53 52 52 49 48 46 47 48 43 43 43 40 41 41 42 44 42 42 42 41 41 40 45 49 54 55 57 58
57 57 56 55 54 53 53 51 51 49 46 47 45 44 42 43 39 38 38 40 41 41 41 39 39 40 40 40 45 51 53 55 56

GFSFLT1_sfc_temp_048.txt.gz
Temp
77 76 76 75 75 75 75 75 75 74 75 75 75 74 73 69 64 64 66 66 74 76 76 75 75 75 76 76 76 75 76 76 75
76 75 74 74 74 75 75 75 74 74 75 75 74 73 70 64 64 64 65 67 76 76 76 75 76 75 74 74 74 74 74 74 75
75 74 74 74 74 74 75 74 74 74 74 74 73 71 69 65 63 64 65 74 76 76 75 75 75 74 74 74 74 74 73 73 73
74 74 74 74 75 75 74 74 74 74 73 73 72 70 67 61 63 66 65 74 76 75 75 75 74 73 73 73 73 73 73 72 72
73 73 73 74 74 74 74 74 74 73 73 71 70 68 66 60 62 63 66 74 75 74 74 74 73 72 71 71 71 71 71 71 71
68 68 71 73 73 73 73 73 72 70 69 69 67 64 58 58 59 61 72 74 74 73 73 72 72 71 70 70 70 70 70 69 69
67 66 69 72 72 72 73 72 70 65 59 59 62 57 56 57 58 60 72 73 73 71 71 71 70 70 69 69 69 69 69 69 68
64 63 64 65 66 64 65 62 60 59 57 57 55 55 54 54 55 61 71 72 72 70 70 70 69 69 69 68 68 68 68 67 67
63 62 62 62 62 60 59 58 57 58 57 55 54 53 52 52 53 58 68 71 71 70 69 69 69 68 68 68 67 67 66 66 66
62 62 62 61 60 59 57 57 56 56 55 54 53 51 50 51 52 53 66 68 69 69 69 68 68 68 67 67 66 66 65 65 65
62 61 61 60 59 58 57 56 55 54 54 53 52 50 49 50 51 52 57 66 67 68 68 67 67 67 67 67 66 65 64 64 64
63 62 60 60 58 57 55 54 53 52 53 51 50 49 48 49 49 50 51 56 64 66 67 66 66 66 66 66 66 65 64 63 63
62 61 60 59 57 56 54 53 51 50 50 49 48 48 48 48 48 49 49 49 52 61 64 64 65 64 65 65 65 64 64 63 63
62 60 60 58 56 54 55 50 51 49 48 49 47 46 47 47 50 47 48 48 48 48 61 62 62 62 63 63 64 63 63 63 62
62 59 58 57 54 52 52 51 47 48 48 53 49 45 46 46 45 46 49 47 47 46 47 46 48 58 60 61 62 62 62 62 62
61 60 58 57 57 55 55 49 48 46 46 46 45 45 45 45 45 45 45 46 47 46 45 44 44 45 54 56 58 60 60 61 61
61 60 58 57 55 53 53 51 47 47 46 46 44 43 45 44 45 43 46 44 45 45 45 44 44 43 42 46 55 55 57 59 60
61 59 58 57 57 55 55 52 51 46 43 44 47 40 42 41 42 42 42 42 42 42 43 43 43 42 40 43 45 53 55 57 59
60 59 58 57 55 53 52 52 52 51 47 46 47 43 45 45 40 40 41 41 42 40 40 40 41 40 39 45 49 52 53 56 57
60 59 57 55 54 54 53 51 51 51 48 47 46 46 44 43 43 39 41 39 39 39 39 38 38 39 38 39 44 51 52 54 55

GFSFLT1_sfc_temp_051.txt.gz
Temp
78 76 76 75 75 75 75 75 75 75 75 75 75 74 72 71 76 76 75 76 74 76 76 74 76 76 76 76 75 75 76 76 75
77 75 76 75 75 75 75 75 75 75 75 75 74 73 70 76 76 76 77 77 76 77 76 76 75 75 75 75 75 75 75 75 76
76 75 74 74 75 75 75 75 75 74 74 74 73 71 70 74 76 76 78 76 77 76 75 75 75 74 74 74 74 74 74 74 73
75 74 74 74 75 75 75 75 74 74 74 73 71 69 68 76 76 76 78 74 76 75 75 74 74 73 73 73 73 72 72 72 72
73 73 74 75 75 74 74 74 74 73 73 72 70 68 68 75 74 77 77 75 75 75 74 73 72 72 72 71 71 71 71 71 70
74 71 71 73 74 74 74 73 72 70 69 69 67 67 74 74 75 76 73 74 74 73 73 72 71 71 71 70 70 70 70 69 69
74 70 70 72 72 72 73 72 69 69 72 72 67 73 72 73 73 75 72 73 73 72 71 71 71 70 70 70 69 69 69 69 68
74 73 74 74 70 75 73 72 73 71 71 70 71 70 70 72 72 71 71 73 72 71 71 70 70 69 69 69 68 68 68 68 68
72 73 72 72 73 72 72 72 70 69 69 70 70 69 69 71 71 71 69 71 71 71 70 70 69 69 68 68 67 67 67 66 66
72 72 72 72 71 71 70 70 70 69 68 68 68 68 68 68 69 72 66 69 70 70 70 69 69 68 68 67 67 66 65 65 65
70 71 70 71 71 71 70 69 69 68 68 66 66 66 66 67 67 69 71 67 68 69 69 68 68 68 68 67 66 65 65 64 64
71 71 70 71 70 69 68 67 67 66 66 65 65 64 65 65 66 66 68 68 65 67 68 67 67 67 67 67 66 65 64 64 63
70 70 69 70 69 68 66 65 64 65 65 64 63 63 63 63 64 64 65 65 67 66 66 65 66 65 65 66 65 65 64 64 63
71 70 70 69 68 66 65 63 64 62 62 62 61 61 62 62 62 63 62 62 63 64 63 63 63 63 64 64 64 64 63 63 63
70 69 69 68 66 65 63 63 61 63 62 61 60 59 60 60 61 61 61 61 60 61 61 61 61 59 60 61 62 62 62 62 63
68 68 69 67 66 65 64 62 60 58 59 58 57 57 58 58 59 59 60 58 58 59 59 60 60 59 55 56 58 60 60 61 62
67 67 67 66 65 64 62 61 58 57 57 58 56 55 57 57 57 57 58 58 58 57 57 57 56 57 57 55 54 55 58 59 61
66 67 66 65 65 62 61 59 59 55 54 55 60 51 55 54 54 54 55 56 56 57 55 55 54 54 55 53 53 54 55 57 59
65 65 65 63 63 62 59 58 58 57 53 51 50 50 53 50 51 51 51 53 54 54 53 53 53 52 53 50 51 52 53 55 57
65 65 64 63 61 62 58 56 58 59 56 52 45 47 48 48 48 46 46 48 48 51 48 52 52 51 51 51 50 51 52 54 55

GFSFLT1_sfc_temp_054.txt.gz
Temp
78 77 76 75 75 76 76 75 76 75 75 75 75 74 73 73 82 82 79 80 76 77 75 75 76 76 76 76 75 75 75 76 75
77 76 75 75 75 75 75 75 75 75 75 75 74 72 71 82 82 82 80 80 77 77 76 75 75 75 75 75 75 75 75 75 75
76 76 75 75 75 75 75 75 75 75 74 74 73 71 72 79 82 82 82 77 77 76 75 75 75 74 74 74 74 74 74 74 74
75 75 74 75 75 75 75 75 75 74 74 73 71 70 70 83 82 82 82 74 76 75 74 74 73 73 73 73 72 72 72 72 72
74 73 74 74 75 74 74 74 74 74 73 72 70 69 70 82 80 83 78 75 75 74 74 73 72 72 72 71 71 71 71 71 70
76 73 72 74 74 74 74 73 72 70 69 69 68 68 83 82 83 83 73 74 74 74 73 72 71 71 71 70 70 70 70 70 69
80 73 70 73 73 73 73 72 70 71 80 76 69 82 81 82 82 81 73 73 73 72 72 71 70 70 70 70 69 69 69 69 68
80 80 78 79 71 80 76 75 80 79 80 79 81 80 80 82 80 74 72 73 72 72 71 70 70 70 69 69 69 68 68 68 67
81 81 81 81 81 80 80 80 79 78 78 79 79 78 79 81 80 75 70 71 72 71 71 70 69 69 69 68 67 67 67 66 66
81 81 81 81 82 81 79 79 78 78 78 78 78 77 78 78 79 80 67 69 70 70 70 70 69 69 68 67 67 66 66 65 65
80 80 80 80 80 80 80 79 78 78 77 76 77 77 77 77 76 79 73 68 69 70 69 69 69 69 68 67 66 65 65 65 64
80 80 79 79 80 80 79 78 78 77 76 75 75 75 76 75 75 75 76 71 66 68 69 68 68 68 67 67 66 65 65 64 64
79 79 79 80 79 78 77 76 74 74 74 74 74 74 73 74 74 73 74 73 73 67 67 67 67 66 66 66 66 65 64 64 64
79 79 79 80 77 76 76 75 74 72 72 72 72 72 72 72 72 72 71 71 71 71 64 64 64 64 65 65 65 64 63 63 63
78 79 78 79 76 74 74 73 73 73 72 71 69 69 70 70 70 71 70 70 68 69 68 66 65 61 62 62 63 62 63 62 63
76 77 77 78 76 74 74 73 70 68 71 67 66 66 67 67 68 69 68 67 67 67 67 67 67 63 58 58 59 60 60 61 62
75 74 76 76 75 74 72 71 68 69 68 66 67 61 63 64 66 66 67 67 67 66 66 66 65 65 65 60 55 56 58 59 60
75 73 74 73 74 73 72 70 67 65 65 69 69 60 61 61 62 62 62 65 65 65 64 63 63 63 63 57 56 55 55 57 59
70 71 72 72 71 70 71 70 68 68 62 63 64 63 65 59 53 55 59 61 60 60 60 61 60 60 60 55 53 53 53 55 57
67 68 69 69 69 69 69 67 67 68 68 62 59 59 58 57 58 54 50 51 56 58 60 59 60 58 57 57 53 51 52 54 55

GFSFLT1_sfc_temp_057.txt.gz
Temp
77 76 75 75 76 76 76 76 76 76 75 75 75 74 74 73 83 77 77 78 77 76 76 77 76 76 75 75 75 75 76 76 75
77 75 75 75 75 76 76 76 75 75 75 75 74 73 73 79 80 76 77 77 76 77 76 75 75 75 75 75 75 75 74 75 74
76 75 75 75 75 75 75 75 75 75 75 74 73 72 72 80 82 79 77 75 76 76 75 75 74 74 74 74 73 73 73 74 74
75 75 75 75 75 75 75 75 75 74 74 73 72 71 72 79 82 82 77 74 76 75 75 74 73 73 73 73 72 72 72 72 72
74 73 74 74 75 74 74 74 74 74 73 71 70 70 71 82 81 79 76 75 75 75 73 73 73 72 72 71 71 71 71 71 71
75 73 72 73 74 74 74 73 73 71 71 70 69 69 81 82 81 79 73 74 75 74 73 72 72 71 71 71 70 70 70 70 69
81 73 71 73 73 73 73 72 71 70 78 74 69 77 81 81 80 76 73 74 74 73 72 71 71 70 70 70 70 70 69 69 69
81 78 76 77 71 77 74 73 76 79 81 79 80 80 80 81 79 72 72 73 73 72 71 70 70 70 69 69 69 68 68 68 68
80 81 79 79 79 77 79 79 80 79 80 80 80 79 79 79 79 71 70 72 72 72 71 70 70 69 69 68 68 67 67 67 67
82 82 81 81 82 81 81 81 80 79 79 80 79 78 78 79 78 76 68 70 71 71 71 70 70 69 68 68 67 66 66 66 66
81 81 81 81 82 82 82 80 79 78 79 78 78 78 78 78 77 77 71 68 69 70 70 70 70 69 68 68 66 66 65 65 65
81 81 81 81 81 81 81 80 80 78 78 77 77 77 77 76 76 76 73 69 66 68 70 69 69 69 68 68 67 66 65 65 64
81 80 80 82 81 80 79 78 76 76 75 75 75 75 75 75 76 74 74 71 70 67 68 68 68 68 68 67 66 65 64 64 64
81 80 80 82 80 75 78 77 75 73 73 73 74 73 72 73 74 73 72 71 70 68 65 65 66 66 66 67 66 65 64 63 63
80 80 80 81 79 76 73 75 75 74 73 73 71 71 71 71 71 71 72 70 67 68 64 62 62 63 64 65 64 64 63 63 63
80 79 79 79 78 77 73 74 72 70 73 68 67 67 68 69 69 70 69 67 66 66 65 64 64 61 61 61 61 61 62 62 62
79 78 77 78 76 76 73 73 70 70 71 65 64 59 62 64 66 67 66 66 65 64 65 65 64 62 59 58 58 58 59 60 61
77 77 76 75 76 74 74 72 70 66 67 68 67 59 58 59 62 63 64 65 63 63 63 63 62 60 60 56 55 56 57 58 59
70 72 73 72 72 73 73 73 68 67 63 63 67 68 64 57 51 58 60 62 62 62 60 61 59 58 57 56 55 55 55 56 58
71 70 69 69 69 68 71 71 70 66 65 60 60 62 59 60 58 51 51 57 58 59 59 58 59 58 56 54 53 53 54 55 55

GFSFLT1_sfc_temp_060.txt.gz
Temp
77 76 76 76 76 76 76 76 76 75 75 75 75 74 74 73 75 73 73 72 77 77 77 76 76 76 76 75 76 75 76 76 76
76 75 75 75 76 76 76 76 75 75 75 75 74 74 73 73 75 74 70 72 77 77 76 75 75 75 75 75 75 75 75 75 74
75 75 75 75 75 76 76 75 75 75 74 74 73 73 72 73 75 73 72 75 76 76 75 75 74 74 74 74 73 73 73 74 74
75 75 75 75 75 75 75 75 75 74 74 73 72 72 71 70 71 75 69 74 76 75 74 74 74 73 73 72 72 72 72 72 72
73 73 74 74 75 74 74 74 74 74 73 72 71 70 70 68 70 70 69 75 75 74 73 73 72 72 72 71 71 71 71 71 71
69 70 72 73 74 74 74 74 73 71 70 70 70 69 68 69 70 69 73 75 75 73 72 72 72 71 71 71 70 70 70 70 70
73 69 70 72 72 73 73 73 71 69 66 64 67 64 67 69 68 67 73 74 74 73 71 71 71 71 70 70 70 70 69 69 69
69 66 67 66 67 68 68 67 66 66 67 66 66 67 68 67 66 69 72 73 73 72 71 71 70 70 70 69 69 68 68 68 68
69 68 67 67 67 67 66 66 67 67 69 67 67 69 67 66 64 65 69 72 73 72 71 70 70 70 69 69 68 67 67 67 67
69 69 70 70 70 68 68 69 69 68 68 68 68 67 67 66 64 62 67 70 71 72 71 71 70 69 69 68 67 67 67 67 66
70 69 69 69 69 72 69 69 68 67 66 67 67 66 65 65 64 63 63 68 70 71 71 71 70 70 69 68 67 66 66 66 65
71 69 69 69 70 71 70 69 68 66 67 65 66 65 65 65 64 63 62 64 66 69 71 70 70 70 69 68 67 66 65 65 65
71 69 69 70 70 69 67 66 65 64 63 62 62 63 64 64 63 63 63 61 63 65 69 69 70 69 69 69 67 66 65 65 64
71 69 69 71 69 67 68 65 65 62 61 62 61 61 61 62 66 62 61 60 60 59 65 66 67 68 68 69 68 66 65 64 64
72 70 70 71 68 66 65 65 64 62 61 67 64 59 59 60 60 60 63 60 60 58 58 57 58 65 67 68 67 66 65 64 63
69 71 68 69 69 69 67 67 63 60 61 58 56 56 59 59 58 59 58 59 60 57 56 56 55 58 64 66 66 65 64 63 63
69 67 67 66 65 64 66 67 62 60 60 55 52 49 53 55 58 57 59 57 57 58 58 58 55 54 54 55 62 62 63 63 63
70 70 68 65 66 65 64 66 63 61 57 60 55 49 48 49 53 57 56 57 55 57 57 58 57 54 52 56 57 59 60 62 62
67 65 67 68 69 69 67 68 63 61 58 55 63 56 54 49 46 51 54 56 56 56 54 55 55 54 50 53 53 57 58 59 60
65 66 65 66 65 66 66 65 64 64 61 58 52 56 52 51 48 44 47 52 53 53 56 53 51 53 50 48 53 56 57 58 58

GFSFLT1_sfc_temp_063.txt.gz
Temp
77 77 76 76 76 76 76 76 75 75 75 75 75 75 74 73 71 70 72 70 76 77 76 76 76 76 76 77 76 76 76 76 76
76 76 75 76 76 76 76 76 75 75 75 75 75 74 72 71 69 69 69 72 77 77 76 75 75 75 75 75 75 75 75 75 75
76 75 75 75 76 76 76 75 75 74 74 74 74 73 71 71 68 67 68 74 76 76 75 75 74 74 74 74 74 73 74 74 74
75 75 75 75 75 75 75 75 74 74 74 73 73 72 70 67 69 71 68 74 76 75 74 74 74 73 73 72 72 72 72 72 72
74 73 74 75 75 74 74 74 74 73 73 72 72 70 69 65 67 67 69 75 75 74 73 73 72 72 72 71 71 71 71 71 71
69 69 71 73 74 74 74 74 73 71 70 71 70 69 65 65 66 66 73 75 75 73 72 72 72 71 71 71 70 70 70 70 70
70 67 70 72 72 72 73 73 71 69 64 63 67 64 64 64 65 65 73 74 74 73 72 71 71 71 70 70 70 70 69 69 69
65 64 66 65 66 67 68 67 65 63 63 63 63 64 63 62 64 68 72 74 74 72 71 71 71 70 70 69 69 69 69 68 68
64 63 63 63 64 64 63 62 63 63 63 63 63 64 63 61 62 65 70 72 73 72 71 71 70 70 70 69 68 68 68 68 67
65 64 64 63 63 64 64 63 63 63 63 64 64 63 64 61 61 61 67 70 72 72 71 71 70 70 69 69 68 68 67 67 67
67 65 65 64 65 66 65 65 64 63 64 65 63 63 63 61 60 60 63 68 70 71 72 71 71 70 70 68 68 67 67 66 66
68 66 65 67 66 68 65 64 64 63 64 63 63 62 61 61 59 60 60 64 66 69 71 71 71 70 70 69 68 67 66 66 65
67 66 66 67 66 66 64 64 62 62 61 60 60 61 61 61 59 60 61 59 63 66 69 70 70 70 70 69 68 67 66 66 65
69 67 67 67 65 65 65 63 62 60 59 60 59 59 59 60 62 58 59 59 59 59 65 66 67 69 70 70 69 68 66 65 65
70 68 67 67 64 64 63 63 61 60 60 64 62 57 57 57 57 58 61 60 59 58 58 59 60 65 68 69 69 68 66 65 65
66 68 65 65 67 66 64 63 61 59 58 57 54 54 54 55 56 57 56 57 59 57 58 57 55 59 66 67 68 68 67 66 64
68 64 64 63 63 62 62 63 60 58 57 54 52 50 52 54 56 55 57 56 57 57 58 57 54 54 56 57 65 66 66 66 65
65 66 66 63 63 62 61 62 61 60 56 55 54 47 48 48 51 56 56 56 54 57 56 58 56 54 53 57 60 62 63 65 65
65 64 64 63 62 63 66 65 63 61 58 55 59 54 52 48 47 49 51 54 54 54 53 55 56 55 52 54 55 59 60 62 64
65 64 63 62 61 62 63 62 63 62 63 59 56 56 52 52 48 45 46 50 53 54 56 54 55 54 53 52 54 58 60 61 62

GFSFLT1_sfc_temp_066.txt.gz
Temp
78 77 76 76 76 76 76 75 75 75 75 76 76 75 74 71 68 68 71 69 77 77 76 76 76 76 76 76 76 76 75 76 75
77 76 76 76 76 76 76 75 75 75 75 75 75 74 72 68 66 67 71 72 77 77 76 75 74 75 75 75 75 75 75 75 75
76 75 75 76 76 76 75 75 75 74 74 74 74 72 71 69 66 66 67 74 76 76 75 75 74 74 75 75 74 74 74 74 74
75 75 75 75 76 75 75 75 74 74 74 74 73 71 70 65 66 69 67 74 75 75 74 74 73 73 73 73 73 72 72 72 72
74 73 74 75 75 75 74 74 74 74 73 73 72 70 69 64 66 66 67 74 74 74 73 73 72 72 72 71 72 72 72 71 71
69 69 71 73 74 74 74 74 73 72 71 71 71 68 64 63 64 65 72 74 74 73 72 72 72 71 71 71 71 71 70 70 71
68 66 69 72 72 72 73 73 72 69 63 62 67 62 62 63 63 64 72 75 74 73 72 71 71 71 70 70 70 70 70 70 70
64 63 65 65 66 66 69 67 64 62 61 61 61 62 62 61 62 66 72 74 74 72 72 71 71 70 70 70 70 69 69 69 69
61 62 62 63 64 63 64 62 62 61 62 61 61 62 61 60 61 63 70 73 74 73 72 71 71 70 70 69 69 69 68 68 68
62 62 61 61 62 63 63 62 61 60 61 62 61 61 60 60 60 61 66 70 72 72 72 71 71 70 70 69 68 68 68 67 67
64 63 63 62 62 63 63 63 62 61 60 61 61 61 60 59 60 60 62 68 70 72 72 72 71 71 70 69 68 68 68 67 67
66 65 64 64 64 63 63 62 62 61 61 60 61 61 60 59 58 60 60 63 66 70 72 72 71 71 70 70 69 68 67 67 66
67 65 64 66 63 64 62 62 60 61 61 61 60 60 59 59 57 58 60 59 62 66 70 71 71 71 70 70 69 68 67 66 66
69 68 67 64 64 63 64 62 61 58 58 58 58 58 58 58 60 57 58 58 59 59 65 67 68 69 70 71 70 69 67 66 66
67 67 66 66 63 63 61 61 59 59 62 63 61 56 56 56 55 57 59 58 58 58 58 60 62 66 69 70 70 69 68 66 66
65 64 63 62 64 66 64 62 60 59 56 59 57 54 54 54 55 54 57 57 58 57 58 58 57 60 66 68 69 70 69 67 66
65 63 63 63 63 61 61 60 58 58 55 55 54 54 56 53 56 53 56 56 58 57 58 58 55 55 57 59 66 68 69 68 67
64 64 63 62 61 62 60 59 59 61 55 54 57 50 51 48 51 53 56 56 53 56 57 57 57 56 56 59 60 63 66 67 67
64 64 64 63 61 61 62 61 60 59 58 54 58 54 53 49 49 48 49 51 53 52 52 56 57 57 55 56 57 61 63 65 66
63 63 62 61 61 61 61 60 59 60 60 56 55 57 54 52 48 54 48 49 51 53 55 54 55 56 54 52 55 59 62 64 64

GFSFLT1_sfc_temp_069.txt.gz
Temp
78 78 76 76 76 76 75 75 75 75 75 75 75 74 72 70 67 67 69 69 77 77 76 76 76 76 76 75 75 75 75 75 75
77 76 75 75 75 75 75 75 75 75 75 75 74 74 71 66 66 67 68 72 77 77 76 76 75 76 75 75 75 75 75 75 75
76 75 75 75 75 75 75 75 75 74 75 75 74 72 70 67 65 66 67 74 76 76 75 75 74 74 75 75 74 74 74 74 74
75 75 75 75 75 75 75 75 74 74 74 74 73 71 69 64 64 67 66 74 75 75 74 74 73 73 73 74 75 73 73 73 72
73 73 74 75 75 75 74 74 74 74 73 73 72 70 69 63 64 65 66 74 75 74 73 73 72 72 72 72 72 72 72 71 71
69 69 71 73 74 74 74 74 73 72 70 71 70 67 63 62 63 63 71 74 74 73 73 72 72 71 71 71 71 71 71 71 71
68 66 69 72 72 72 73 73 72 69 62 61 66 61 61 62 62 63 72 74 74 73 72 72 71 71 70 70 70 70 70 70 70
64 63 64 65 66 66 68 67 64 62 61 60 59 61 60 60 61 65 71 74 74 73 72 71 71 71 70 70 70 69 69 69 69
61 61 62 62 63 63 63 62 62 61 60 59 59 60 60 60 61 62 68 72 74 73 72 71 71 71 70 70 69 69 68 68 68
60 61 61 61 61 62 62 62 61 60 59 60 59 59 59 59 60 60 64 69 72 73 72 72 71 71 70 70 69 69 68 68 68
61 61 61 60 61 62 62 62 61 60 59 59 59 59 58 58 59 60 61 67 70 72 73 72 72 71 71 70 69 68 68 68 67
63 62 61 62 61 61 61 61 61 60 60 58 59 59 59 58 57 59 59 61 66 69 73 72 72 71 71 71 69 68 68 68 67
63 63 63 63 61 62 60 61 60 60 59 58 59 59 59 58 57 57 59 59 61 65 69 71 72 71 71 71 70 69 68 67 67
66 65 65 63 62 61 62 60 60 58 59 59 59 58 57 58 60 56 57 58 59 59 64 66 68 69 71 71 71 70 68 67 67
65 65 65 63 62 61 59 61 58 60 61 61 61 57 57 55 55 56 58 58 59 58 57 59 62 66 69 70 71 71 69 68 67
64 63 63 62 62 64 61 60 59 58 55 55 55 56 59 59 56 54 54 56 58 58 58 58 57 60 66 68 70 71 70 68 67
64 62 63 62 62 61 60 59 57 57 55 55 54 55 57 53 56 54 57 55 55 56 57 58 57 57 60 62 67 68 70 70 68
64 64 63 62 60 60 60 59 58 61 56 56 58 52 50 49 52 52 53 56 50 53 55 56 58 58 58 59 63 64 66 69 69
62 62 62 62 61 60 60 60 59 58 58 53 56 56 52 51 51 51 50 50 51 49 50 54 57 58 57 58 58 60 63 68 69
57 59 60 60 60 60 59 59 58 58 58 56 55 54 55 52 50 52 52 51 51 52 53 53 53 54 53 52 55 59 60 65 66

GFSFLT1_sfc_temp_072.txt.gz
Temp
78 77 76 76 75 75 75 75 75 75 75 75 75 74 73 70 66 66 68 71 77 77 77 76 76 76 76 75 75 75 75 75 75
77 76 75 75 75 75 75 75 75 75 75 75 74 73 70 66 65 66 67 71 78 77 76 76 76 75 75 75 75 75 75 75 75
76 75 75 75 75 75 75 75 75 74 75 74 73 72 70 67 65 65 66 74 76 76 75 75 75 75 75 75 74 74 74 74 74
75 75 75 75 75 75 75 74 74 74 74 73 72 71 69 63 64 67 65 74 75 75 74 74 73 73 73 74 75 74 73 73 73
74 73 74 75 75 74 74 74 74 73 73 72 71 70 69 63 64 64 64 74 75 74 73 73 72 72 72 72 72 74 73 72 72
68 69 71 73 73 74 74 73 73 71 69 70 70 67 62 62 62 63 69 74 74 73 73 72 72 71 71 71 71 71 71 71 71
67 66 69 71 72 72 73 73 72 68 62 60 66 61 61 61 62 62 69 74 74 73 72 72 71 71 70 70 70 70 70 70 70
64 63 64 64 65 65 67 66 64 62 60 59 59 60 60 59 61 64 69 73 75 73 72 71 71 71 70 70 70 69 69 69 69
61 61 61 62 62 62 63 63 62 61 60 58 58 59 59 58 60 61 66 71 74 74 73 72 71 71 70 70 69 69 68 69 68
60 60 60 61 61 61 61 61 61 60 59 58 58 58 57 58 59 60 63 68 71 74 73 72 72 71 71 70 69 69 68 68 68
60 60 60 60 61 61 61 61 61 60 59 59 58 58 57 57 58 59 60 65 68 72 74 73 73 72 71 71 70 69 69 68 68
62 60 60 60 60 60 60 60 60 59 60 59 59 58 58 57 57 58 59 60 65 68 73 73 73 72 72 72 71 69 69 68 68
62 61 60 61 60 60 59 59 59 59 59 59 59 59 58 58 57 57 58 58 60 64 68 71 73 72 72 72 72 70 69 68 68
63 62 62 61 60 59 60 59 59 58 58 59 59 58 57 58 60 56 56 57 59 59 63 66 67 70 71 72 72 72 70 68 68
63 62 62 61 60 59 58 59 58 59 59 59 60 57 57 56 56 59 58 56 57 58 58 58 62 65 69 71 72 72 71 69 68
63 62 61 60 60 61 60 59 59 58 56 58 58 56 56 56 58 61 57 55 56 57 57 57 58 58 66 68 70 71 72 70 69
64 62 61 61 60 60 59 58 56 56 56 58 55 55 58 53 55 53 54 54 53 55 55 55 55 55 56 60 66 68 70 71 70
63 63 63 62 61 60 59 58 58 58 56 58 59 53 52 53 55 56 52 52 50 51 54 54 56 57 59 59 61 63 66 69 68
59 60 62 62 60 59 59 59 58 58 57 53 55 54 55 52 52 55 53 53 51 51 53 53 56 57 57 57 58 60 62 64 64
54 55 56 61 61 59 59 58 57 56 56 54 54 55 54 53 51 52 51 50 51 50 49 49 51 54 53 53 55 58 60 63 64

GFSFLT1_sfc_temp_075.txt.gz
Temp
78 77 76 75 75 76 76 75 75 75 75 75 75 74 73 72 76 77 75 79 78 78 77 77 76 76 76 76 76 76 76 75 75
77 76 75 75 75 75 76 75 75 75 75 75 74 73 70 77 77 76 78 79 77 77 76 76 76 76 76 75 76 75 75 75 75
76 76 75 75 75 75 75 75 75 75 75 74 73 72 70 75 77 76 78 75 76 76 75 75 75 76 75 75 75 75 74 74 74
76 75 75 75 75 75 75 75 74 74 74 73 72 71 69 77 77 76 78 74 76 75 74 74 73 73 73 74 75 74 74 73 73
74 73 74 75 75 74 74 74 74 73 73 72 71 70 69 77 75 77 78 74 75 74 73 73 72 72 72 72 72 73 74 74 73
74 70 71 73 74 74 74 73 73 71 69 70 70 68 77 76 77 77 70 74 74 74 73 72 72 71 71 71 71 71 71 72 72
74 70 69 72 72 72 73 73 72 70 75 75 70 76 75 75 76 76 69 73 75 73 73 72 71 71 70 70 70 70 70 70 70
74 73 73 74 69 75 74 74 75 72 73 73 75 74 73 75 75 73 69 72 75 74 73 72 71 71 70 70 70 70 69 69 69
72 72 72 72 73 72 72 73 73 72 72 72 72 72 73 74 74 73 66 70 73 75 74 72 72 71 71 70 70 69 69 69 69
72 71 71 71 72 71 71 72 72 72 72 72 71 72 72 73 73 73 64 66 70 73 75 73 73 72 71 71 70 69 69 69 68
70 71 71 71 71 72 72 71 71 72 71 72 72 72 72 72 71 72 73 65 68 71 73 75 74 73 72 72 71 70 69 69 68
71 71 71 72 72 71 71 71 70 70 71 71 72 72 72 71 71 71 72 72 65 67 71 74 74 73 73 73 72 70 69 69 68
71 71 71 73 71 71 70 70 70 69 70 71 72 72 71 72 72 71 71 71 71 69 67 70 73 73 73 73 73 72 70 69 69
71 71 72 72 71 70 70 70 69 69 70 69 70 70 70 71 71 72 71 70 70 71 67 65 67 69 72 73 73 73 71 69 69
71 71 71 71 70 70 69 69 69 69 70 67 67 69 70 71 71 69 70 71 69 70 69 70 70 65 68 71 73 73 73 70 69
70 70 69 68 68 69 69 68 67 67 67 65 68 69 70 67 67 72 71 69 67 67 67 68 69 70 65 68 70 72 72 72 70
69 68 68 68 66 66 67 66 65 64 63 64 63 61 67 68 68 68 66 67 66 65 66 67 67 68 68 68 66 68 71 72 72
67 67 67 67 66 66 67 65 64 63 63 64 61 57 57 58 65 66 65 65 64 64 63 64 65 66 64 64 64 63 66 70 71
61 62 64 64 64 63 64 65 64 62 61 59 60 61 59 55 55 60 62 60 64 63 64 63 63 64 65 62 60 60 63 67 69
58 59 59 61 63 63 63 63 61 62 62 60 59 59 57 58 54 52 57 63 63 61 63 62 61 61 61 61 60 59 62 65 67

GFSFLT1_sfc_temp_078.txt.gz
Temp
78 77 76 75 76 76 76 76 75 75 75 75 75 74 73 73 83 82 81 79 77 77 76 76 76 76 76 76 76 76 75 75 76
77 76 75 75 76 76 76 75 75 75 75 75 74 72 72 84 83 83 80 79 77 77 76 76 76 76 76 76 75 75 75 75 75
76 76 75 75 75 76 75 75 75 75 74 74 73 72 72 81 83 82 83 76 76 76 75 75 74 74 74 75 75 75 75 74 74
76 75 75 75 75 75 75 75 74 74 74 73 72 71 71 84 83 83 84 74 76 75 74 74 73 73 73 73 74 74 74 73 73
74 74 74 75 75 74 74 74 74 73 73 72 72 71 70 85 82 84 80 74 75 74 74 73 73 72 72 72 72 72 73 74 74
79 71 72 73 74 74 74 74 73 71 70 70 70 69 85 85 85 85 72 73 75 74 73 72 72 72 71 71 71 71 71 71 71
82 73 70 72 72 72 73 73 71 70 83 81 71 84 84 84 84 84 71 72 75 74 73 72 72 71 71 70 70 70 70 70 70
81 82 80 81 71 81 78 78 82 80 81 82 83 82 81 84 83 79 70 71 74 75 73 72 72 71 71 70 70 70 70 70 69
82 83 82 81 83 81 81 82 82 80 80 81 81 80 81 83 83 80 68 69 72 74 75 73 72 72 71 71 70 70 69 69 69
82 82 82 82 82 82 81 81 82 81 81 81 80 81 81 82 82 82 66 67 70 72 74 75 73 73 72 71 71 70 69 69 68
80 81 80 81 81 82 81 81 81 81 81 80 81 81 81 81 81 81 79 66 67 70 72 74 75 74 73 72 72 70 70 69 69
80 80 80 81 82 81 81 80 80 79 80 79 81 81 81 81 80 79 80 78 65 67 71 73 74 74 74 74 73 71 70 69 69
80 79 80 82 81 80 80 79 78 78 79 79 80 80 80 80 81 80 80 79 79 71 68 70 72 73 74 74 74 73 71 70 69
80 80 81 82 80 79 79 79 78 78 78 77 78 79 79 80 80 80 80 79 77 78 71 66 67 69 71 74 74 74 72 70 69
80 80 80 81 79 78 79 77 79 76 76 76 76 78 79 79 79 80 81 81 79 77 76 76 74 64 68 71 73 74 73 71 70
79 79 79 78 77 78 78 77 74 74 76 73 74 76 77 77 79 79 81 80 77 76 75 75 76 76 66 68 69 71 73 72 70
76 76 75 75 74 75 74 73 71 72 74 70 67 64 73 78 77 77 76 76 77 74 74 74 74 74 74 71 66 67 70 72 72
69 70 69 69 69 68 69 70 69 66 70 70 67 62 64 69 73 73 75 73 74 72 72 72 72 72 72 68 67 63 64 67 70
67 68 68 69 67 66 67 68 65 65 63 65 65 68 63 58 57 68 72 71 71 72 74 72 72 71 70 65 61 61 61 64 67
64 65 65 66 67 65 66 66 64 63 62 63 63 62 62 61 57 55 63 67 69 73 73 72 71 68 66 66 62 57 59 63 65

GFSFLT1_sfc_temp_081.txt.gz
Temp
77 76 76 76 76 76 76 75 75 75 75 75 75 74 74 73 83 77 79 77 77 77 76 76 76 76 76 76 76 76 75 75 75
76 75 75 75 75 75 75 75 75 75 75 75 74 73 73 83 81 79 78 77 77 77 76 75 75 75 75 75 75 75 75 75 75
76 75 75 75 76 75 75 75 75 75 75 74 73 73 73 82 83 82 79 75 76 76 75 74 74 74 74 74 75 74 74 74 74
76 75 75 75 75 75 75 75 75 74 74 73 72 72 72 81 82 83 79 74 76 75 74 74 74 73 73 73 73 73 74 74 74
74 74 74 75 75 74 74 74 74 73 73 73 72 72 71 82 82 82 77 75 75 74 74 73 73 73 72 72 72 72 72 73 73
78 71 72 74 74 74 74 74 73 72 71 71 71 70 81 84 83 83 72 74 75 74 73 73 72 72 71 71 71 71 71 72 71
81 73 71 73 73 73 73 73 72 71 81 76 71 78 83 83 82 81 73 73 74 74 73 72 72 72 71 71 71 71 71 70 70
81 80 77 78 70 79 75 74 78 82 81 82 82 82 82 83 82 77 72 72 74 75 74 73 72 72 71 71 70 70 70 70 69
83 83 82 82 83 82 82 82 83 82 81 82 82 82 81 82 82 79 70 71 72 74 75 74 73 72 72 71 71 70 69 69 69
83 83 83 83 83 82 82 82 82 82 82 83 82 81 82 82 82 81 67 69 70 72 74 75 74 73 72 72 71 70 70 69 69
82 82 81 82 82 83 82 82 81 81 82 81 82 82 82 82 81 81 78 68 69 70 72 74 75 75 74 73 72 71 70 70 69
81 81 81 82 83 82 82 82 81 80 81 80 81 82 82 81 81 81 79 77 66 68 71 73 74 74 75 74 74 72 71 70 70
81 81 81 83 82 81 80 80 79 79 79 80 81 81 80 80 81 81 80 79 79 69 69 70 72 73 74 75 75 74 72 71 70
81 81 82 83 81 81 80 79 79 78 78 78 78 78 78 79 81 80 80 79 78 77 71 67 68 69 71 74 75 75 73 72 70
82 81 81 82 80 79 79 78 78 76 76 76 75 76 77 78 78 79 80 80 79 78 76 74 71 65 68 71 73 74 74 72 70
81 80 80 79 78 78 78 77 75 73 75 70 71 73 76 77 77 78 79 78 78 77 75 74 74 74 66 68 70 71 72 73 72
77 76 75 74 72 74 74 73 70 70 71 67 66 62 70 75 77 77 76 76 75 74 74 74 73 71 71 67 65 66 67 69 71
70 69 69 68 68 67 67 67 66 64 67 67 64 62 62 67 72 73 74 74 73 72 72 72 72 70 70 68 66 62 62 65 67
69 69 70 69 68 67 66 67 67 66 64 66 64 64 63 60 60 69 70 71 71 72 71 72 71 69 66 63 57 58 59 62 65
66 66 67 67 67 67 66 66 66 66 64 64 64 62 61 61 56 56 59 66 67 70 70 67 66 64 62 60 57 56 58 61 63

GFSFLT1_sfc_temp_084.txt.gz
Temp
77 76 76 75 75 76 75 75 75 75 75 75 75 75 74 73 76 75 73 71 77 77 76 75 76 76 76 76 76 76 75 75 75
76 75 75 75 75 75 75 75 75 75 75 75 75 74 72 75 74 72 70 71 77 76 76 75 75 75 75 76 75 75 75 75 75
76 75 75 75 75 75 75 75 75 75 74 74 74 73 71 75 74 70 69 74 76 76 75 74 74 74 74 74 74 74 74 74 74
75 75 75 75 75 75 74 74 74 74 74 73 72 72 71 68 73 74 69 74 76 75 74 74 74 73 73 73 73 73 73 73 73
74 73 74 74 74 74 74 74 74 73 73 72 72 71 70 67 74 70 69 75 75 74 74 74 73 73 72 72 72 72 72 72 72
72 70 72 73 73 74 74 73 72 71 71 71 71 70 68 69 72 69 72 74 75 74 73 73 73 72 72 71 71 71 71 71 71
73 69 70 72 72 72 73 73 72 70 68 66 69 66 68 71 71 68 72 74 75 74 73 72 72 72 71 71 71 71 71 70 70
70 66 67 66 67 68 70 69 68 68 69 69 68 70 70 69 70 70 72 74 74 75 74 73 72 72 71 71 70 70 70 70 69
70 69 68 68 68 68 68 68 69 71 72 71 70 70 69 69 69 67 70 72 74 74 75 74 73 72 72 71 71 70 69 69 69
70 70 70 69 70 70 69 70 71 70 71 71 71 70 70 69 69 67 66 70 72 73 74 75 75 74 73 72 71 70 70 69 69
71 70 70 69 70 70 70 70 70 70 70 71 71 70 70 70 70 70 66 68 70 72 73 74 75 75 75 74 73 72 71 70 70
71 70 69 70 71 72 70 71 70 69 71 69 71 71 70 69 70 71 69 67 66 69 73 74 74 74 75 75 74 73 72 71 70
71 70 70 71 71 71 69 69 68 67 68 67 69 69 70 71 71 71 70 69 70 67 69 71 73 73 74 75 75 74 73 71 71
72 71 71 72 71 70 70 69 68 67 69 71 72 70 68 70 73 70 70 70 72 70 67 66 68 69 72 73 74 74 73 72 71
73 72 72 72 72 70 71 72 73 71 70 70 69 67 68 68 68 69 71 70 71 71 70 63 63 65 68 71 72 73 73 72 71
73 71 74 73 72 73 72 71 69 64 65 63 63 64 66 67 68 68 67 68 70 68 66 64 64 64 66 67 69 69 70 71 71
71 70 68 68 67 68 68 67 65 66 67 63 62 59 61 65 66 65 67 66 65 65 65 64 64 61 61 61 61 63 65 67 68
65 67 66 65 65 65 65 65 64 62 65 65 62 55 54 57 62 64 64 63 61 62 63 64 63 60 59 56 56 59 61 63 66
63 63 64 62 63 64 64 65 63 63 59 60 62 61 60 55 55 61 61 61 62 61 64 63 61 58 56 54 55 57 59 62 64
60 60 60 60 60 59 59 59 59 59 59 60 61 58 58 59 56 54 57 59 61 60 61 58 55 55 52 51 52 55 57 59 62

GFSFLT1_sfc_temp_087.txt.gz
Temp
77 76 76 75 75 76 75 75 75 75 75 75 75 75 74 73 70 68 71 69 77 76 75 75 75 76 76 76 76 75 75 75 75
76 75 75 75 75 75 75 75 75 75 75 75 75 74 72 72 68 67 67 70 76 76 75 75 75 75 75 75 75 75 75 75 74
76 75 75 75 75 75 75 75 75 74 74 74 74 73 71 71 67 67 67 74 76 76 75 74 74 74 74 74 74 74 74 74 73
75 75 75 75 75 75 74 74 74 74 74 73 73 72 70 67 68 71 67 74 76 75 74 74 74 73 73 73 72 72 73 73 73
73 73 74 74 74 74 74 74 74 73 73 73 72 71 70 66 68 68 68 75 75 74 74 74 73 73 72 72 72 72 72 72 72
70 69 71 73 73 73 73 73 73 71 71 71 71 70 66 65 67 67 72 75 75 74 73 73 73 72 72 71 71 71 71 71 71
71 68 70 72 72 72 73 73 72 70 66 65 68 64 65 66 67 67 72 75 75 74 73 72 72 72 71 71 71 71 70 70 70
66 65 66 66 67 66 69 68 67 65 65 65 64 65 65 66 66 69 72 75 75 75 74 73 72 72 71 71 70 70 70 70 69
65 64 65 64 65 64 65 64 65 66 66 67 66 67 66 66 66 65 69 73 75 75 75 75 73 72 72 71 71 70 69 69 69
66 65 65 64 64 64 64 64 65 65 67 67 67 67 67 66 66 64 66 70 73 74 75 75 75 74 73 72 72 71 70 69 69
66 66 66 65 66 66 66 66 67 67 66 67 67 67 66 67 67 66 64 67 70 72 74 75 75 75 75 74 73 72 71 70 70
68 67 66 67 67 68 67 67 67 66 68 66 68 68 67 67 67 67 66 66 66 69 74 74 75 74 75 75 74 73 72 72 71
68 67 67 68 67 67 66 66 65 65 65 65 66 67 67 67 68 68 68 67 69 67 69 72 73 74 74 74 75 74 71 71 71
69 68 68 69 68 67 67 66 65 64 65 69 70 69 67 66 70 67 68 69 69 69 67 67 68 69 71 73 74 74 73 72 71
70 69 69 69 71 70 69 70 70 69 69 69 68 67 65 65 65 66 68 67 67 66 67 65 63 64 68 69 71 71 70 70 71
72 70 71 71 71 71 70 69 68 66 66 65 64 63 63 63 64 64 64 68 66 65 63 65 61 62 64 64 65 66 67 68 68
70 69 68 68 67 67 67 66 65 65 66 64 62 57 59 61 61 61 64 65 66 65 63 62 59 57 56 57 60 61 64 66 67
65 65 65 65 65 64 64 64 63 62 64 65 62 56 52 54 59 61 62 63 61 60 60 59 59 55 53 53 54 58 60 63 66
61 60 61 61 59 60 61 63 61 62 60 60 60 59 59 57 53 57 59 60 63 60 59 58 59 56 53 53 55 56 58 61 63
59 58 57 57 57 57 57 57 57 57 56 57 59 60 59 56 54 51 54 56 59 57 57 56 54 53 52 50 53 56 58 60 61

GFSFLT1_sfc_temp_090.txt.gz
Temp
77 76 76 75 76 76 76 75 75 75 75 76 76 75 74 71 67 66 70 68 76 76 75 76 76 76 76 76 75 75 75 74 74
76 75 75 75 75 75 75 75 75 75 75 75 75 73 72 68 65 65 66 69 76 76 75 75 75 75 75 74 74 75 74 74 73
75 75 75 75 75 75 75 75 75 74 75 75 74 72 71 69 65 65 66 74 76 75 75 74 74 73 73 73 73 73 73 73 73
75 75 75 75 75 75 74 74 74 74 74 74 73 72 70 65 66 69 66 74 76 75 74 74 74 73 73 72 72 72 72 72 72
74 73 74 74 74 74 74 74 74 73 73 73 72 71 69 64 67 66 66 75 75 74 74 74 73 73 72 72 72 72 72 71 71
69 69 71 72 73 73 73 73 73 72 70 71 71 69 65 63 65 65 71 75 75 74 73 73 73 72 71 71 71 71 71 71 70
69 67 70 72 72 72 73 73 72 69 64 64 66 64 64 63 65 65 72 75 76 74 73 72 72 72 71 71 71 70 70 70 70
66 65 66 65 66 65 68 66 65 64 63 63 63 64 63 62 64 68 71 74 76 75 74 73 72 72 71 71 70 70 70 69 69
64 63 64 63 64 63 63 63 64 64 64 63 64 64 64 63 63 64 69 72 75 76 75 75 73 72 72 72 71 70 69 69 69
64 63 63 63 63 63 63 63 63 63 64 64 64 64 64 64 64 63 65 69 72 75 75 75 75 75 73 73 72 71 70 70 69
63 63 63 63 63 63 62 62 63 63 64 65 65 64 64 64 64 64 63 66 70 72 75 75 75 75 75 75 73 72 71 70 70
65 64 63 64 64 64 64 64 64 64 65 64 65 66 65 65 65 65 64 64 65 69 74 75 75 75 75 74 75 74 72 71 71
66 65 65 66 65 65 64 64 63 63 63 63 65 65 69 69 67 66 65 65 69 67 69 72 74 74 73 74 74 73 72 71 70
68 67 66 66 65 65 65 64 64 63 64 66 69 69 67 66 68 65 66 66 68 67 66 66 67 68 70 72 72 72 70 70 70
68 68 68 68 68 68 68 68 68 68 68 68 68 68 68 65 63 63 65 64 65 64 65 62 63 66 68 69 69 69 68 68 68
70 68 68 70 70 70 70 68 67 67 66 65 64 62 64 62 61 61 61 64 64 65 63 63 62 60 62 63 64 65 67 67 68
71 70 68 68 68 67 67 66 65 65 65 63 62 56 58 59 60 58 60 60 63 64 63 61 56 54 55 57 59 61 64 65 67
65 66 66 65 65 65 65 64 63 62 63 63 60 56 53 54 58 58 59 61 61 60 57 58 55 54 55 55 55 58 60 62 65
61 61 60 60 59 59 59 60 59 58 57 58 59 58 60 56 55 56 56 57 57 55 57 54 55 54 54 55 56 58 59 62 63
59 59 58 57 56 56 56 56 56 56 55 55 56 58 58 55 56 54 53 53 52 52 52 51 52 52 51 52 54 57 59 61 61

GFSFLT1_sfc_temp_093.txt.gz
Temp
77 76 76 75 75 76 76 75 75 75 75 76 76 75 73 69 65 64 68 67 76 76 75 76 77 76 76 76 75 75 74 74 74
76 75 75 75 76 76 75 75 75 75 75 75 74 74 71 66 64 64 65 68 76 76 75 75 75 75 75 76 75 75 74 74 73
75 75 75 75 75 75 75 75 75 75 75 75 73 72 70 67 64 64 65 73 76 75 75 74 74 73 73 73 73 73 73 73 72
75 74 75 75 75 75 74 74 74 74 74 74 72 71 69 63 64 68 65 74 75 75 74 74 73 73 73 72 72 72 72 72 72
73 73 73 74 74 74 74 74 74 74 73 73 71 69 68 63 65 65 65 74 75 74 74 73 73 72 72 71 71 71 71 71 71
68 68 71 72 73 73 73 73 73 71 70 70 70 68 63 62 64 64 69 74 75 74 73 73 72 72 71 71 71 71 71 70 70
68 66 69 71 71 72 73 72 71 68 63 62 65 62 62 62 63 64 70 74 75 74 73 72 72 72 71 71 70 70 70 70 69
65 64 65 65 66 64 67 65 64 63 62 62 61 62 62 60 62 66 70 73 76 76 74 73 72 72 71 71 70 70 70 69 69
63 63 63 63 63 62 62 62 63 63 63 62 62 62 62 61 62 62 67 71 75 76 76 75 73 72 72 72 71 70 69 69 69
63 63 62 62 62 62 62 62 62 62 63 63 62 62 62 62 62 61 64 68 72 74 76 76 75 74 74 73 72 71 70 70 69
63 63 62 62 62 62 62 61 62 62 62 63 63 62 62 62 62 63 63 66 69 72 75 75 76 75 75 75 74 72 71 71 70
64 62 62 62 62 62 61 61 61 61 63 62 63 64 63 63 63 64 63 63 65 68 73 75 75 75 75 75 74 73 71 71 70
64 63 63 64 63 62 61 61 61 61 61 61 63 63 68 69 69 68 64 64 68 67 68 71 73 72 73 73 73 71 70 70 70
66 64 64 64 64 63 64 63 63 62 63 65 68 68 68 68 69 67 64 64 65 65 65 65 67 69 71 72 71 70 69 69 69
67 66 66 66 65 64 65 67 67 67 67 67 67 66 64 65 62 61 63 62 63 63 63 62 62 66 68 68 69 69 68 68 68
68 67 66 66 65 68 68 68 67 66 66 65 62 61 62 60 59 59 59 61 62 61 61 62 60 62 64 65 65 66 67 67 67
70 69 68 68 67 68 68 67 66 66 66 63 61 55 57 57 58 58 58 57 59 60 61 59 55 55 53 57 61 63 64 65 66
65 65 65 65 65 65 65 64 64 62 61 61 60 55 51 53 58 58 58 59 56 54 55 55 56 54 53 55 56 59 62 63 64
62 62 61 61 60 59 59 59 58 58 56 56 58 57 57 54 52 56 55 57 57 55 55 53 53 52 52 54 56 58 61 63 63
59 59 59 58 58 57 58 56 55 55 55 54 54 54 54 56 54 50 51 52 52 51 50 49 51 51 53 52 53 58 61 62 62

GFSFLT1_sfc_temp_096.txt.gz
Temp
77 77 76 75 75 76 76 76 75 75 76 76 76 74 72 69 63 64 68 66 76 76 76 76 76 76 77 76 76 75 74 74 73
76 75 75 75 75 75 75 75 75 75 75 75 75 73 70 64 63 63 64 68 76 76 75 75 75 75 74 74 74 74 74 73 73
76 76 75 75 75 75 75 75 75 75 75 74 74 72 70 66 63 63 64 73 76 75 75 74 74 73 73 73 73 73 73 73 72
75 75 75 75 75 75 74 74 74 74 74 73 72 70 68 63 63 67 64 73 76 75 74 74 73 73 73 72 72 72 72 72 72
74 73 74 74 74 74 74 74 74 74 73 72 71 69 68 62 64 64 64 74 75 75 74 74 73 73 72 72 72 71 71 71 71
68 68 71 72 73 73 73 73 72 71 69 70 69 67 62 61 62 63 69 73 75 74 73 73 73 72 71 71 71 71 71 70 70
67 66 69 71 71 71 72 72 71 67 61 61 64 61 61 61 61 62 69 73 75 74 73 72 72 72 71 71 71 71 70 70 70
64 63 64 64 65 64 66 64 63 62 61 61 60 61 61 59 61 64 69 73 75 76 74 73 72 72 72 71 71 70 70 70 69
63 62 62 62 63 62 62 62 62 62 62 61 62 61 61 60 60 61 66 70 74 76 76 75 74 73 72 72 72 71 70 70 69
63 62 62 61 61 61 61 61 61 61 62 62 62 61 61 60 61 60 64 67 71 74 75 76 76 75 74 73 73 72 71 71 70
63 62 62 61 61 62 61 61 61 61 60 62 62 61 61 61 61 62 62 66 68 71 74 75 76 75 76 75 74 73 72 71 71
64 63 62 62 62 62 61 60 60 60 61 61 62 62 62 62 62 63 63 64 65 67 72 74 75 75 75 73 73 72 70 71 71
64 63 62 62 61 61 60 60 60 60 60 61 63 63 66 68 69 68 67 66 67 67 69 70 73 72 73 72 73 71 70 69 69
65 64 63 63 62 61 62 61 61 61 62 65 67 68 67 68 66 64 63 63 63 63 64 65 67 70 72 72 71 70 69 68 69
66 64 64 64 63 63 62 63 65 66 67 67 66 66 63 62 60 60 61 61 62 61 62 62 62 66 69 70 70 69 69 68 68
66 65 64 64 64 64 64 67 66 66 65 63 60 60 60 59 57 57 57 58 59 59 58 58 59 61 63 65 66 67 68 67 67
68 67 66 65 67 67 67 66 66 66 66 62 60 53 56 56 57 56 57 55 57 57 57 57 55 55 56 57 61 62 65 66 67
67 66 66 64 64 63 64 65 64 60 59 60 60 56 50 52 55 55 55 55 53 53 53 53 54 52 53 54 55 60 61 64 66
63 63 64 63 61 61 61 60 60 59 57 57 57 56 56 55 53 53 52 52 54 53 55 54 54 53 53 54 57 59 61 63 64
60 60 59 59 59 59 59 57 56 56 55 54 54 53 53 53 51 48 49 49 49 50 52 51 52 52 53 52 55 58 62 64 63

GFSFLT1_sfc_temp_099.txt.gz
Temp
78 77 76 76 76 76 76 76 76 76 76 76 75 74 71 71 76 76 77 78 77 76 76 75 75 76 76 75 75 75 74 74 74
77 76 75 75 76 76 76 76 75 75 75 76 74 72 70 76 76 76 77 78 76 76 75 75 75 75 74 74 74 74 74 73 73
76 75 75 75 76 76 76 76 75 75 75 75 73 71 70 75 76 76 77 75 76 76 75 74 74 74 74 73 73 73 73 73 73
75 75 75 76 76 75 75 75 75 75 74 73 72 70 68 77 77 76 77 74 76 75 74 74 74 73 73 73 73 72 72 72 72
74 72 74 74 75 74 74 74 74 74 73 72 71 69 68 77 75 77 78 74 75 75 74 74 73 73 72 72 72 72 72 72 71
75 70 71 72 73 73 73 73 73 70 69 70 70 68 77 77 77 77 70 73 75 74 73 73 73 72 72 72 71 71 71 71 71
74 70 69 71 71 72 73 72 71 70 75 75 69 77 76 76 76 77 70 73 75 75 73 73 72 72 72 71 71 71 71 70 70
73 73 73 74 69 74 73 73 75 73 75 75 76 75 75 77 76 74 69 72 75 76 75 73 73 72 72 72 71 71 70 70 70
71 71 72 72 73 72 73 74 74 73 73 74 75 75 75 77 76 75 66 69 73 75 76 76 75 73 72 72 72 71 71 70 70
70 70 70 71 72 72 72 73 74 74 74 74 74 75 76 76 76 76 64 67 70 73 75 76 76 75 75 74 73 72 72 72 71
69 70 69 71 71 72 73 73 73 74 74 74 75 76 76 76 75 76 76 66 68 71 73 75 76 75 76 75 73 72 72 72 72
70 70 70 71 71 71 71 71 71 71 72 73 75 75 76 76 76 74 75 73 65 68 72 74 75 74 75 74 73 71 71 70 71
72 71 71 72 72 71 71 71 71 71 71 73 74 75 74 72 72 73 76 74 76 71 69 70 71 73 74 74 72 70 70 69 69
72 72 72 72 71 70 70 71 72 72 72 71 71 73 70 73 74 75 74 74 74 74 68 65 67 70 73 73 72 70 69 69 69
72 72 72 72 70 70 70 71 71 72 70 69 71 75 75 74 73 72 71 71 70 72 71 72 70 67 70 71 71 70 69 68 68
71 71 71 71 71 71 72 71 70 67 68 70 72 72 71 70 70 70 70 68 67 68 68 69 69 66 63 65 66 67 67 68 68
71 71 70 71 70 71 70 69 67 72 71 70 66 64 69 68 67 68 66 65 67 65 65 65 64 63 60 61 61 63 65 66 67
68 67 68 69 69 68 68 67 69 68 67 68 68 62 60 63 66 64 65 64 64 63 62 62 60 60 60 59 58 60 62 65 66
64 64 65 65 64 63 62 63 64 64 63 64 64 64 63 60 59 63 62 62 61 61 61 61 59 57 57 56 57 59 62 65 65
60 60 60 59 59 59 59 59 59 60 62 62 62 62 61 62 60 57 59 59 59 59 60 59 58 57 57 57 57 59 62 65 64

GFSFLT1_sfc_temp_102.txt.gz
Temp
79 78 77 76 76 76 76 76 76 76 76 75 75 73 73 75 83 82 80 82 77 77 76 75 75 75 75 75 74 74 74 74 74
77 76 76 76 76 76 76 76 76 75 76 75 74 72 72 83 82 82 82 80 77 76 75 75 75 75 74 74 74 74 74 74 73
77 76 76 76 76 76 76 76 75 75 75 74 73 71 72 81 82 82 82 76 76 76 75 75 74 74 74 74 73 73 73 73 73
76 75 75 76 76 76 75 75 75 75 75 73 72 70 70 84 83 83 83 74 76 75 75 74 74 74 73 73 73 73 72 72 72
74 73 75 76 75 74 74 74 74 74 73 72 71 70 70 84 82 84 81 75 76 75 74 74 74 73 73 72 72 72 72 72 71
76 73 72 73 73 74 74 74 73 71 71 71 70 68 85 86 85 85 72 73 75 74 74 73 73 73 72 72 72 71 71 71 71
81 73 70 72 72 72 73 73 71 70 83 80 71 84 84 85 84 85 71 73 75 75 74 73 73 73 72 72 71 71 71 71 70
80 79 78 79 71 80 77 77 82 81 83 82 84 84 83 86 85 78 70 72 74 76 76 74 73 73 72 72 72 71 71 70 70
80 80 80 80 81 81 81 83 82 81 81 83 83 83 83 85 85 81 68 70 73 75 76 76 75 73 73 73 73 72 71 71 70
80 80 80 80 80 79 80 81 81 81 82 82 82 83 84 84 85 85 67 68 70 73 75 76 76 75 75 75 74 73 72 72 72
80 79 78 78 77 80 81 81 81 81 82 82 83 83 84 83 83 84 83 67 68 71 73 75 76 75 75 75 73 72 72 72 72
79 78 77 77 80 80 80 80 81 80 81 81 82 83 83 83 83 83 83 79 66 67 71 73 74 74 75 74 73 71 71 70 70
78 78 79 81 80 79 79 80 79 79 80 81 82 82 83 83 83 81 83 82 82 73 69 70 71 72 74 74 72 71 70 70 70
79 80 81 81 80 79 79 79 79 78 79 80 82 82 82 80 82 82 81 81 79 81 69 66 67 70 73 74 72 70 70 69 69
79 80 80 80 79 78 78 78 79 79 79 78 78 81 82 81 81 80 80 79 77 78 77 78 71 66 70 71 71 70 69 68 68
78 79 80 79 78 79 79 78 76 76 78 75 77 78 79 78 78 78 79 75 75 75 77 78 74 70 64 67 67 67 68 68 68
77 78 77 79 78 78 78 77 74 76 78 75 75 70 75 76 75 77 75 74 75 73 73 73 72 71 70 64 62 64 65 67 67
72 71 71 72 76 75 76 74 73 72 74 76 74 67 67 71 74 72 74 73 73 72 70 69 69 69 66 65 61 61 63 66 67
65 65 67 65 66 68 68 66 67 68 66 68 69 72 70 64 65 70 70 71 70 70 70 69 67 65 64 57 58 60 62 66 66
64 65 64 61 59 58 58 59 60 59 61 61 65 67 68 68 65 63 67 68 68 69 69 69 68 66 65 64 59 59 63 66 65

GFSFLT1_sfc_temp_105.txt.gz
Temp
79 78 77 77 77 77 77 77 76 76 75 75 75 74 74 74 83 81 80 78 77 76 76 76 76 75 75 75 74 74 74 74 74
78 77 76 77 76 76 76 76 76 75 75 75 74 73 73 83 82 82 80 77 77 76 76 75 75 75 74 74 74 74 74 74 74
77 77 77 76 76 76 76 76 75 76 75 74 73 72 73 82 82 81 78 75 76 76 75 75 74 74 74 74 73 73 73 73 73
76 76 78 76 76 76 75 75 75 75 75 74 72 72 72 81 82 83 79 75 76 75 75 74 74 74 73 73 73 73 73 72 72
74 74 75 75 75 75 75 75 74 74 74 73 72 71 71 83 82 82 77 75 76 75 74 74 74 73 73 72 72 72 72 72 72
75 73 72 74 74 74 74 74 73 72 71 72 71 69 82 84 83 82 73 74 75 75 74 74 73 73 72 72 72 72 71 71 71
81 71 70 72 72 72 73 73 72 71 80 77 71 78 83 83 83 79 73 73 75 75 74 73 73 73 72 72 72 71 71 71 70
79 75 75 75 69 76 74 74 77 81 83 83 83 83 83 84 83 74 72 73 75 76 76 74 73 73 73 72 72 72 71 71 70
80 78 78 79 78 81 79 80 82 81 82 83 83 83 82 83 83 75 70 72 74 75 76 76 75 74 73 73 73 72 72 71 71
81 81 80 80 81 82 81 81 81 81 82 83 83 83 83 84 83 82 67 70 72 73 75 76 76 75 75 75 74 73 73 72 72
79 79 78 80 81 82 82 81 81 82 82 82 83 83 84 84 83 83 77 68 70 71 73 75 76 75 75 76 74 73 72 72 72
79 78 78 79 81 81 81 81 82 81 82 81 83 83 84 83 84 83 82 76 66 69 72 73 74 74 75 75 74 71 71 71 71
79 76 78 78 80 79 80 80 79 79 80 80 81 82 83 83 83 82 82 81 82 70 70 71 71 72 74 75 73 71 70 70 70
77 78 79 81 80 79 79 79 79 78 79 79 82 82 81 82 82 82 82 80 79 78 69 67 65 69 73 73 73 71 70 69 69
78 79 80 81 79 79 79 78 79 79 77 77 79 79 75 75 80 79 80 79 77 77 76 73 67 66 71 72 71 70 69 68 68
78 79 79 78 77 78 79 78 77 76 78 75 73 73 80 79 78 78 78 75 75 75 75 72 69 67 65 67 68 68 68 68 68
77 78 76 75 74 76 78 77 75 76 77 72 71 68 74 75 74 75 74 74 74 73 73 73 71 67 65 62 62 64 66 67 68
74 75 73 72 68 70 71 74 73 69 71 73 72 67 64 69 72 72 73 73 72 71 70 70 69 68 65 63 61 61 63 66 68
70 70 68 65 65 65 62 63 65 69 65 68 67 68 67 64 63 69 70 70 70 70 69 68 67 66 64 59 58 60 62 66 67
67 67 64 64 62 60 60 59 59 59 60 61 61 61 60 64 61 58 63 67 68 69 69 68 67 65 64 63 57 59 62 65 66

GFSFLT1_sfc_temp_108.txt.gz
Temp
79 78 77 77 77 76 77 76 76 75 75 76 76 75 74 73 73 71 73 71 77 77 76 76 75 75 75 75 75 74 74 74 74
78 77 77 77 76 76 77 76 75 75 75 75 75 74 73 74 71 70 69 71 77 76 76 75 75 75 74 74 74 74 74 74 74
77 77 78 77 76 76 76 76 75 75 75 74 74 73 71 74 72 70 68 74 76 76 75 75 74 74 74 74 73 73 73 73 73
77 78 78 77 76 76 75 75 75 75 74 73 73 72 71 67 72 74 69 74 76 76 75 75 74 74 73 73 73 73 73 72 72
75 74 75 76 75 75 74 75 75 74 73 72 72 71 70 68 74 71 69 75 76 75 75 74 74 73 73 73 72 72 72 72 72
73 72 73 74 74 74 74 74 73 72 71 71 71 70 68 70 72 69 72 75 76 75 74 74 74 73 72 72 72 72 72 72 71
76 70 71 74 73 73 73 73 72 70 68 66 69 65 69 71 70 68 72 74 76 75 74 73 73 73 72 72 72 72 71 71 71
69 70 70 70 67 68 69 68 67 67 69 68 67 69 71 69 70 70 72 74 75 75 75 74 73 73 73 73 72 72 71 71 71
70 70 67 66 66 67 67 66 68 68 72 71 72 73 71 70 69 66 70 72 75 75 76 76 75 74 74 73 73 73 72 71 71
72 70 70 69 69 69 69 69 70 70 71 72 74 72 71 72 70 66 66 70 72 74 75 75 76 75 76 74 74 73 72 72 72
69 70 69 69 70 71 71 71 70 70 70 72 73 72 72 72 72 68 67 68 70 72 74 75 75 75 76 75 74 73 72 71 71
69 69 68 69 71 72 71 71 71 69 72 71 73 73 72 75 76 76 72 68 66 70 73 74 74 73 75 76 74 72 71 71 71
70 69 69 71 70 70 70 70 69 68 69 69 70 71 73 73 76 73 73 74 74 67 70 71 71 72 73 75 74 72 71 70 70
70 70 70 72 70 70 71 69 68 67 68 69 73 74 74 74 75 72 73 70 69 67 66 65 65 69 72 74 73 71 70 69 69
71 71 71 73 70 70 70 68 69 68 68 73 73 69 69 71 72 70 71 68 68 67 65 63 62 66 70 72 72 70 69 68 68
72 71 72 73 73 71 71 70 68 66 68 67 68 70 70 71 66 67 66 67 67 66 65 67 65 62 65 69 69 69 69 68 68
72 70 70 70 69 69 71 70 67 66 67 64 61 58 65 63 66 65 66 64 65 65 65 63 66 63 61 61 63 64 66 67 68
70 69 68 66 65 64 63 64 66 63 64 64 61 57 55 58 62 63 63 63 62 61 62 62 62 61 59 59 58 61 63 66 68
68 66 65 65 64 63 61 62 62 63 62 62 63 61 61 57 56 62 63 63 62 60 60 59 60 58 55 57 58 60 62 67 67
65 65 64 63 62 61 61 60 61 61 60 60 58 58 57 58 56 54 57 60 60 61 59 58 57 58 56 53 56 59 63 66 66

GFSFLT1_sfc_temp_111.txt.gz
Temp
79 78 77 76 76 76 76 76 76 75 76 76 76 75 74 72 68 67 71 69 77 76 76 75 75 75 75 75 74 74 74 74 74
78 77 76 76 76 76 76 76 75 75 75 76 75 74 72 69 67 66 67 70 77 76 76 75 75 75 74 74 74 74 74 74 74
77 77 76 76 76 76 76 75 75 75 75 75 74 73 71 71 67 66 66 74 76 76 75 75 74 74 74 74 73 73 73 73 73
77 77 77 77 76 75 75 75 75 75 74 74 73 72 70 66 68 71 67 74 76 75 75 74 74 74 73 73 73 73 72 72 72
76 75 75 76 75 74 74 75 75 74 73 73 72 71 70 66 69 68 68 75 76 75 75 74 74 73 73 72 72 72 72 72 72
74 75 73 74 74 74 74 74 73 72 71 71 71 70 66 65 67 67 73 75 76 75 74 74 74 73 72 72 72 72 72 72 71
76 72 71 73 73 73 73 73 72 70 66 65 69 65 65 66 66 67 73 75 76 75 74 73 73 73 72 72 72 72 71 71 71
73 72 71 70 69 68 69 68 66 65 65 65 64 66 66 65 66 69 72 75 76 76 75 74 73 73 73 73 72 72 71 71 71
70 72 70 68 65 65 65 64 64 65 66 66 65 67 68 66 66 66 70 73 75 76 76 75 75 74 74 74 73 72 72 71 71
67 65 66 64 64 63 63 63 64 65 67 69 68 68 69 68 67 65 66 70 73 75 75 76 75 75 75 75 74 73 72 72 72
68 68 66 65 64 65 65 65 65 67 68 68 69 69 69 69 67 66 65 68 70 73 75 75 75 75 76 76 74 73 72 71 71
68 68 67 67 67 67 66 67 68 67 68 68 69 69 69 70 73 71 70 67 66 70 74 75 74 73 75 76 74 72 71 71 70
68 68 68 68 67 67 67 66 66 66 67 67 68 68 70 70 74 73 71 69 72 67 70 71 71 72 73 75 74 72 71 70 70
69 68 67 67 67 67 67 66 66 66 65 68 68 68 72 73 74 70 68 69 67 65 66 65 66 69 71 75 74 72 70 69 69
69 68 69 69 66 67 67 67 67 67 67 70 70 69 70 71 67 70 69 66 65 63 62 61 61 66 70 72 72 71 70 69 68
70 69 69 69 69 70 69 68 66 65 66 65 64 68 69 65 68 65 63 64 64 63 61 61 59 61 65 68 70 69 69 68 68
71 70 68 68 68 67 68 67 65 66 66 63 62 60 62 65 65 62 63 61 62 62 62 61 60 58 61 61 62 64 66 68 69
70 68 67 66 66 64 64 65 65 62 62 62 61 57 55 57 61 60 61 60 59 59 59 59 59 58 58 59 59 61 63 66 68
65 65 65 64 63 63 62 63 62 62 61 61 62 61 60 57 55 61 62 62 60 58 58 57 57 55 54 57 58 60 62 66 67
65 64 64 63 62 62 62 61 61 61 61 60 58 57 57 57 56 53 57 60 60 58 57 56 56 56 53 52 56 59 62 66 66

GFSFLT1_sfc_temp_114.txt.gz
Temp
79 78 76 76 76 76 76 75 75 75 76 76 76 76 74 71 66 66 70 68 76 76 75 75 75 75 75 75 74 74 74 74 74
78 76 76 75 76 76 76 76 75 75 75 76 75 74 71 66 64 65 66 69 76 76 75 75 75 74 74 74 74 74 74 74 74
76 76 75 75 76 76 76 75 75 75 75 75 74 72 71 68 65 64 65 74 76 76 75 74 74 74 74 74 73 73 73 73 73
76 76 76 76 76 76 75 75 75 75 74 74 73 71 70 64 65 68 66 74 76 75 75 74 74 74 73 73 73 73 73 72 72
75 74 75 75 75 75 74 75 74 74 73 73 72 70 69 64 66 66 66 75 76 75 74 74 74 73 73 72 72 72 72 72 72
72 72 72 73 74 74 74 74 73 72 71 71 71 69 65 65 65 65 72 75 76 75 74 74 73 73 72 72 72 72 72 72 71
76 72 71 73 72 72 73 73 72 69 64 63 67 64 64 64 65 65 72 75 76 75 74 73 73 73 72 72 72 71 71 71 71
73 74 72 70 68 68 69 67 65 64 63 63 62 64 64 63 64 68 72 75 76 75 74 73 73 73 73 72 72 72 71 71 70
72 73 71 69 65 65 65 64 64 63 63 63 64 65 65 63 64 64 69 73 76 76 75 75 74 73 74 74 73 72 71 71 71
72 74 73 68 64 64 63 63 63 62 62 64 64 65 65 64 64 63 65 70 73 75 76 76 75 75 75 75 74 73 72 71 71
71 70 70 64 63 63 63 62 62 62 63 65 66 66 66 66 65 64 64 68 70 73 75 76 76 75 76 76 74 73 72 71 71
69 67 66 66 63 64 63 62 63 63 65 64 67 67 67 68 66 67 67 68 66 69 74 75 75 74 74 76 74 73 72 71 70
69 67 67 67 65 65 64 63 62 63 63 64 65 67 68 68 69 70 70 68 68 67 70 72 72 72 73 74 74 72 71 70 69
68 67 67 66 65 66 65 63 64 62 63 64 65 66 67 68 71 68 68 66 65 63 66 65 66 69 71 73 74 72 70 69 69
69 69 68 68 67 66 65 64 63 64 64 68 68 66 67 70 69 68 67 66 63 62 62 61 61 66 69 72 72 71 70 68 68
70 69 68 68 68 68 66 65 64 63 65 64 62 64 66 67 67 66 62 62 62 61 60 60 59 60 66 69 70 70 69 68 68
71 69 67 67 65 66 67 66 63 64 63 61 61 58 62 62 63 61 63 60 60 60 60 59 58 58 58 60 63 65 66 67 69
69 68 67 66 66 65 65 65 64 61 60 62 61 55 55 57 60 60 62 58 58 58 59 59 57 56 55 57 58 61 63 66 68
67 67 66 66 64 63 63 62 62 62 59 59 61 61 61 55 54 60 60 60 59 57 58 58 56 54 53 56 58 60 62 66 68
64 63 63 63 62 62 61 61 61 61 60 59 58 58 58 57 55 52 56 58 60 59 59 57 55 56 55 53 56 59 62 65 66

GFSFLT1_sfc_temp_117.txt.gz
Temp
79 78 77 77 77 77 76 75 75 75 76 76 76 75 73 70 65 65 69 67 76 76 75 75 75 75 75 74 74 74 74 74 74
78 76 76 75 75 75 75 75 75 75 75 75 75 73 70 65 63 63 65 68 76 76 75 75 74 74 74 74 74 74 74 73 74
76 75 75 75 75 75 75 75 75 75 75 74 74 71 70 66 63 64 65 73 76 75 75 74 74 74 74 73 73 73 73 73 73
76 75 75 76 75 75 75 75 75 75 74 74 72 71 68 62 64 67 65 74 76 75 74 74 74 73 73 73 73 73 72 72 72
74 73 74 75 75 74 74 74 74 74 73 73 71 70 68 62 65 65 65 75 76 75 74 74 74 73 73 72 72 72 72 72 72
71 71 72 73 74 74 74 74 73 72 71 71 70 67 64 63 64 64 70 75 76 75 74 74 73 73 72 72 72 72 72 71 71
73 69 70 72 72 72 73 73 72 69 64 63 67 62 63 63 64 64 71 75 76 75 74 73 73 73 72 72 72 71 71 71 70
70 70 71 71 68 67 69 68 66 64 62 62 61 63 62 61 63 67 70 74 76 75 74 73 73 73 73 72 72 72 71 71 70
70 71 67 68 68 65 64 63 63 62 62 61 61 62 62 61 63 64 68 72 76 76 75 74 74 73 74 73 73 72 71 71 71
71 72 70 69 67 66 64 63 62 62 62 62 61 62 62 62 63 63 65 69 72 75 76 76 75 75 75 75 74 73 72 71 71
70 71 72 68 67 64 64 63 62 61 61 62 63 63 63 63 63 63 64 67 70 73 75 76 76 76 75 76 74 73 72 71 71
70 71 71 68 66 63 62 62 61 60 62 61 63 64 64 64 64 65 64 65 66 69 74 75 75 74 74 75 74 73 72 71 70
69 69 69 68 65 62 61 61 60 60 60 61 62 64 65 65 65 66 65 66 67 66 69 71 73 72 73 74 75 72 71 70 69
69 69 69 67 66 63 63 60 61 60 60 62 63 64 64 65 68 65 66 66 64 63 65 66 66 68 70 72 74 72 70 69 69
68 70 69 67 66 64 63 63 62 61 62 66 65 63 64 64 65 66 67 65 63 61 61 61 61 65 69 71 73 71 70 69 68
67 68 68 67 65 65 65 64 62 63 62 62 61 63 64 65 64 64 65 64 63 61 60 59 59 60 67 69 71 70 70 69 69
66 68 67 65 65 65 66 66 61 63 63 61 59 57 60 60 61 61 62 61 61 61 60 59 58 57 58 61 65 67 67 67 68
66 66 67 65 65 64 64 65 63 60 60 61 60 54 54 56 58 58 59 58 57 58 58 58 57 56 55 57 59 62 63 65 68
65 65 66 66 65 63 63 62 62 61 59 59 60 59 58 54 53 57 56 57 57 57 58 58 58 55 55 56 57 60 62 65 67
65 65 65 64 64 64 62 61 60 60 59 59 59 59 58 56 53 51 53 55 56 58 59 58 57 56 56 55 57 60 62 64 66